Observation data for Panhandle on 11/08/2019      Previous  Date       Current Mesonet Observations  Soil Data  Daily Summary Page  Observations in Plain Language
KPA1 080600Z 19003KT 02/M03 A3045 RMK A01 T00181032  RH  069%=      5-min Rain = 0
KPA1 080601Z 19003KT 02/M03 A3045 RMK A01 T00181031  RH  070%=      5-min Rain = 0
KPA1 080602Z 20003KT 02/M03 A3045 RMK A01 T00181031  RH  070%=      5-min Rain = 0
KPA1 080603Z 18003KT 02/M03 A3045 RMK A01 T00181031  RH  070%=      5-min Rain = 0
KPA1 080604Z 19003KT 02/M03 A3045 RMK A01 T00181031  RH  070%=      5-min Rain = 0
KPA1 080605Z 18002KT 02/M03 A3045 RMK A01 T00181033  RH  069%=      5-min Rain = 0
KPA1 080606Z 19002KT 02/M03 A3045 RMK A01 T00181033  RH  069%=      5-min Rain = 0
KPA1 080607Z 19002KT 02/M03 A3045 RMK A01 T00181032  RH  069%=      5-min Rain = 0
KPA1 080608Z 20003KT 02/M03 A3045 RMK A01 T00181031  RH  070%=      5-min Rain = 0
KPA1 080609Z 19003KT 02/M03 A3045 RMK A01 T00191030  RH  070%=      5-min Rain = 0
KPA1 080610Z 18003KT 02/M03 A3045 RMK A01 T00181031  RH  070%=      5-min Rain = 0
KPA1 080611Z 18003KT 02/M03 A3045 RMK A01 T00181031  RH  070%=      5-min Rain = 0
KPA1 080612Z 18003KT 02/M03 A3045 RMK A01 T00191031  RH  070%=      5-min Rain = 0
KPA1 080613Z 17002KT 02/M03 A3045 RMK A01 T00181033  RH  069%=      5-min Rain = 0
KPA1 080614Z 18002KT 02/M03 A3045 RMK A01 T00191033  RH  068%=      5-min Rain = 0
KPA1 080615Z 19002KT 02/M03 A3045 RMK A01 T00181033  RH  069%=      5-min Rain = 0
KPA1 080616Z 17002KT 02/M03 A3045 RMK A01 T00191032  RH  069%=      5-min Rain = 0
KPA1 080617Z 18003KT 02/M03 A3045 RMK A01 T00181032  RH  069%=      5-min Rain = 0
KPA1 080618Z 18003KT 02/M03 A3045 RMK A01 T00191032  RH  069%=      5-min Rain = 0
KPA1 080619Z 18004KT 02/M03 A3045 RMK A01 T00191032  RH  069%=      5-min Rain = 0
KPA1 080620Z 17004KT 02/M03 A3045 RMK A01 T00191033  RH  069%=      5-min Rain = 0
KPA1 080621Z 18003KT 02/M03 A3045 RMK A01 T00191033  RH  069%=      5-min Rain = 0
KPA1 080622Z 18004KT 02/M03 A3045 RMK A01 T00191033  RH  069%=      5-min Rain = 0
KPA1 080623Z 18003KT 02/M03 A3045 RMK A01 T00181032  RH  069%=      5-min Rain = 0
KPA1 080624Z 18003KT 02/M03 A3045 RMK A01 T00191032  RH  069%=      5-min Rain = 0
KPA1 080625Z 18003KT 02/M03 A3045 RMK A01 T00181033  RH  069%=      5-min Rain = 0
KPA1 080626Z 18004KT 02/M03 A3045 RMK A01 T00191031  RH  070%=      5-min Rain = 0
KPA1 080627Z 18003KT 02/M03 A3045 RMK A01 T00191031  RH  070%=      5-min Rain = 0
KPA1 080628Z 18003KT 02/M03 A3045 RMK A01 T00191031  RH  070%=      5-min Rain = 0
KPA1 080629Z 18004KT 02/M03 A3045 RMK A01 T00191031  RH  069%=      5-min Rain = 0
KPA1 080630Z 18004KT 02/M03 A3044 RMK A01 T00191031  RH  070%=      5-min Rain = 0
KPA1 080631Z 18004KT 02/M03 A3044 RMK A01 T00181032  RH  069%=      5-min Rain = 0
KPA1 080632Z 19004KT 02/M03 A3044 RMK A01 T00181032  RH  069%=      5-min Rain = 0
KPA1 080633Z 18004KT 02/M03 A3044 RMK A01 T00191031  RH  070%=      5-min Rain = 0
KPA1 080634Z 18004KT 02/M03 A3044 RMK A01 T00191031  RH  069%=      5-min Rain = 0
KPA1 080635Z 17005KT 02/M03 A3044 RMK A01 T00181032  RH  069%=      5-min Rain = 0
KPA1 080636Z 18004KT 02/M03 A3044 RMK A01 T00191032  RH  069%=      5-min Rain = 0
KPA1 080637Z 18004KT 02/M03 A3044 RMK A01 T00181032  RH  069%=      5-min Rain = 0
KPA1 080638Z 19004KT 02/M03 A3044 RMK A01 T00191032  RH  069%=      5-min Rain = 0
KPA1 080639Z 18003KT 02/M03 A3044 RMK A01 T00181032  RH  069%=      5-min Rain = 0
KPA1 080640Z 18004KT 02/M03 A3044 RMK A01 T00191032  RH  069%=      5-min Rain = 0
KPA1 080641Z 18005KT 02/M03 A3044 RMK A01 T00181031  RH  070%=      5-min Rain = 0
KPA1 080642Z 19004KT 02/M03 A3044 RMK A01 T00181032  RH  069%=      5-min Rain = 0
KPA1 080643Z 18003KT 02/M03 A3044 RMK A01 T00181032  RH  069%=      5-min Rain = 0
KPA1 080644Z 18003KT 02/M03 A3044 RMK A01 T00191031  RH  070%=      5-min Rain = 0
KPA1 080645Z 19004KT 02/M03 A3044 RMK A01 T00191029  RH  070%=      5-min Rain = 0
KPA1 080646Z 18004KT 02/M03 A3044 RMK A01 T00191029  RH  070%=      5-min Rain = 0
KPA1 080647Z 18004KT 02/M03 A3044 RMK A01 T00191031  RH  070%=      5-min Rain = 0
KPA1 080648Z 19004KT 02/M03 A3044 RMK A01 T00191031  RH  069%=      5-min Rain = 0
KPA1 080649Z 19003KT 02/M03 A3044 RMK A01 T00191030  RH  070%=      5-min Rain = 0
KPA1 080650Z 20003KT 02/M03 A3044 RMK A01 T00191029  RH  071%=      5-min Rain = 0
KPA1 080651Z 19004KT 02/M03 A3044 RMK A01 T00191028  RH  071%=      5-min Rain = 0
KPA1 080652Z 19005KT 02/M03 A3044 RMK A01 T00201028  RH  071%=      5-min Rain = 0
KPA1 080653Z 19005KT 02/M03 A3044 RMK A01 T00191030  RH  070%=      5-min Rain = 0
KPA1 080654Z 20006KT 02/M03 A3044 RMK A01 T00201030  RH  069%=      5-min Rain = 0
KPA1 080655Z 19004KT 02/M03 A3044 RMK A01 T00191031  RH  069%=      5-min Rain = 0
KPA1 080656Z 19006KT 02/M03 A3044 RMK A01 T00201030  RH  070%=      5-min Rain = 0
KPA1 080657Z 18005KT 02/M03 A3044 RMK A01 T00191031  RH  069%=      5-min Rain = 0
KPA1 080658Z 18005KT 02/M03 A3044 RMK A01 T00201031  RH  069%=      5-min Rain = 0
KPA1 080659Z 18005KT 02/M03 A3044 RMK A01 T00191031  RH  069%=      5-min Rain = 0
KPA1 080700Z 18004KT 02/M03 A3044 RMK A01 T00191031  RH  069%=      5-min Rain = 0
KPA1 080701Z 18004KT 02/M03 A3044 RMK A01 T00201029  RH  070%=      5-min Rain = 0
KPA1 080702Z 18004KT 02/M03 A3044 RMK A01 T00191028  RH  071%=      5-min Rain = 0
KPA1 080703Z 18006KT 02/M03 A3044 RMK A01 T00201028  RH  071%=      5-min Rain = 0
KPA1 080704Z 18005KT 02/M03 A3044 RMK A01 T00201029  RH  070%=      5-min Rain = 0
KPA1 080705Z 19005KT 02/M03 A3044 RMK A01 T00191030  RH  070%=      5-min Rain = 0
KPA1 080706Z 19005KT 02/M03 A3044 RMK A01 T00191031  RH  070%=      5-min Rain = 0
KPA1 080707Z 19005KT 02/M03 A3044 RMK A01 T00191032  RH  069%=      5-min Rain = 0
KPA1 080708Z 18003KT 02/M03 A3044 RMK A01 T00191032  RH  069%=      5-min Rain = 0
KPA1 080709Z 18004KT 02/M03 A3044 RMK A01 T00191031  RH  069%=      5-min Rain = 0
KPA1 080710Z 19004KT 02/M03 A3044 RMK A01 T00191031  RH  069%=      5-min Rain = 0
KPA1 080711Z 18004KT 02/M03 A3044 RMK A01 T00191032  RH  069%=      5-min Rain = 0
KPA1 080712Z 18004KT 02/M03 A3044 RMK A01 T00191031  RH  069%=      5-min Rain = 0
KPA1 080713Z 19003KT 02/M03 A3044 RMK A01 T00191030  RH  070%=      5-min Rain = 0
KPA1 080714Z 19004KT 02/M03 A3044 RMK A01 T00191030  RH  070%=      5-min Rain = 0
KPA1 080715Z 18004KT 02/M03 A3043 RMK A01 T00191030  RH  070%=      5-min Rain = 0
KPA1 080716Z 18005KT 02/M03 A3043 RMK A01 T00191031  RH  069%=      5-min Rain = 0
KPA1 080717Z 19005KT 02/M03 A3043 RMK A01 T00191032  RH  069%=      5-min Rain = 0
KPA1 080718Z 19005KT 02/M03 A3043 RMK A01 T00191032  RH  069%=      5-min Rain = 0
KPA1 080719Z 19005KT 02/M03 A3043 RMK A01 T00201032  RH  068%=      5-min Rain = 0
KPA1 080720Z 19005KT 02/M03 A3043 RMK A01 T00201032  RH  069%=      5-min Rain = 0
KPA1 080721Z 19005KT 02/M03 A3043 RMK A01 T00201033  RH  068%=      5-min Rain = 0
KPA1 080722Z 19005KT 02/M03 A3043 RMK A01 T00191033  RH  068%=      5-min Rain = 0
KPA1 080723Z 19005KT 02/M03 A3043 RMK A01 T00191032  RH  069%=      5-min Rain = 0
KPA1 080724Z 19005KT 02/M03 A3043 RMK A01 T00191032  RH  069%=      5-min Rain = 0
KPA1 080725Z 19005KT 02/M03 A3043 RMK A01 T00191032  RH  069%=      5-min Rain = 0
KPA1 080726Z 20006KT 02/M03 A3043 RMK A01 T00191032  RH  069%=      5-min Rain = 0
KPA1 080727Z 20006KT 02/M03 A3043 RMK A01 T00191032  RH  068%=      5-min Rain = 0
KPA1 080728Z 20006KT 02/M03 A3043 RMK A01 T00191033  RH  068%=      5-min Rain = 0
KPA1 080729Z 20005KT 02/M03 A3043 RMK A01 T00191033  RH  068%=      5-min Rain = 0
KPA1 080730Z 19005KT 02/M03 A3043 RMK A01 T00191033  RH  068%=      5-min Rain = 0
KPA1 080731Z 19005KT 02/M03 A3043 RMK A01 T00191032  RH  069%=      5-min Rain = 0
KPA1 080732Z 20005KT 02/M03 A3043 RMK A01 T00191034  RH  068%=      5-min Rain = 0
KPA1 080733Z 20005KT 02/M03 A3043 RMK A01 T00191034  RH  068%=      5-min Rain = 0
KPA1 080734Z 19004KT 02/M03 A3043 RMK A01 T00201033  RH  068%=      5-min Rain = 0
KPA1 080735Z 19006KT 02/M03 A3043 RMK A01 T00201032  RH  069%=      5-min Rain = 0
KPA1 080736Z 19006KT 02/M04 A3043 RMK A01 T00191035  RH  067%=      5-min Rain = 0
KPA1 080737Z 19006KT 02/M04 A3043 RMK A01 T00191036  RH  067%=      5-min Rain = 0
KPA1 080738Z 20005KT 02/M04 A3043 RMK A01 T00201036  RH  066%=      5-min Rain = 0
KPA1 080739Z 20005KT 02/M04 A3043 RMK A01 T00191036  RH  067%=      5-min Rain = 0
KPA1 080740Z 20005KT 02/M03 A3043 RMK A01 T00191034  RH  067%=      5-min Rain = 0
KPA1 080741Z 20005KT 02/M03 A3043 RMK A01 T00191033  RH  068%=      5-min Rain = 0
KPA1 080742Z 20006KT 02/M03 A3043 RMK A01 T00191032  RH  069%=      5-min Rain = 0
KPA1 080743Z 20007KT 02/M03 A3043 RMK A01 T00191034  RH  068%=      5-min Rain = 0
KPA1 080744Z 20005KT 02/M04 A3043 RMK A01 T00191037  RH  066%=      5-min Rain = 0
KPA1 080745Z 20006KT 02/M04 A3043 RMK A01 T00191036  RH  067%=      5-min Rain = 0
KPA1 080746Z 19006KT 02/M04 A3043 RMK A01 T00191036  RH  067%=      5-min Rain = 0
KPA1 080747Z 20006KT 02/M04 A3043 RMK A01 T00191037  RH  066%=      5-min Rain = 0
KPA1 080748Z 20006KT 02/M04 A3043 RMK A01 T00191037  RH  066%=      5-min Rain = 0
KPA1 080749Z 20005KT 02/M04 A3043 RMK A01 T00191038  RH  066%=      5-min Rain = 0
KPA1 080750Z 19005KT 02/M04 A3043 RMK A01 T00191037  RH  066%=      5-min Rain = 0
KPA1 080751Z 19004KT 02/M04 A3043 RMK A01 T00191037  RH  067%=      5-min Rain = 0
KPA1 080752Z 19004KT 02/M04 A3043 RMK A01 T00191036  RH  067%=      5-min Rain = 0
KPA1 080753Z 19006KT 02/M04 A3043 RMK A01 T00191036  RH  067%=      5-min Rain = 0
KPA1 080754Z 19005KT 02/M04 A3043 RMK A01 T00191039  RH  066%=      5-min Rain = 0
KPA1 080755Z 21005KT 02/M04 A3043 RMK A01 T00181039  RH  066%=      5-min Rain = 0
KPA1 080756Z 20005KT 02/M04 A3043 RMK A01 T00181037  RH  066%=      5-min Rain = 0
KPA1 080757Z 19005KT 02/M04 A3043 RMK A01 T00181038  RH  066%=      5-min Rain = 0
KPA1 080758Z 20005KT 02/M04 A3043 RMK A01 T00191039  RH  066%=      5-min Rain = 0
KPA1 080759Z 20006KT 02/M04 A3043 RMK A01 T00191041  RH  064%=      5-min Rain = 0
KPA1 080800Z 19005KT 02/M04 A3043 RMK A01 T00181042  RH  064%=      5-min Rain = 0
KPA1 080801Z 20005KT 02/M04 A3043 RMK A01 T00181041  RH  065%=      5-min Rain = 0
KPA1 080802Z 20005KT 02/M04 A3043 RMK A01 T00181041  RH  065%=      5-min Rain = 0
KPA1 080803Z 20005KT 02/M04 A3043 RMK A01 T00181041  RH  065%=      5-min Rain = 0
KPA1 080804Z 20005KT 02/M04 A3043 RMK A01 T00181042  RH  064%=      5-min Rain = 0
KPA1 080805Z 20005KT 02/M04 A3043 RMK A01 T00181042  RH  064%=      5-min Rain = 0
KPA1 080806Z 20005KT 02/M04 A3043 RMK A01 T00181042  RH  064%=      5-min Rain = 0
KPA1 080807Z 19005KT 02/M04 A3043 RMK A01 T00191040  RH  065%=      5-min Rain = 0
KPA1 080808Z 20004KT 02/M04 A3043 RMK A01 T00191039  RH  065%=      5-min Rain = 0
KPA1 080809Z 22004KT 02/M04 A3043 RMK A01 T00181038  RH  066%=      5-min Rain = 0
KPA1 080810Z 21004KT 02/M04 A3043 RMK A01 T00181037  RH  067%=      5-min Rain = 0
KPA1 080811Z 21004KT 02/M04 A3043 RMK A01 T00181036  RH  067%=      5-min Rain = 0
KPA1 080812Z 20004KT 02/M03 A3043 RMK A01 T00191034  RH  068%=      5-min Rain = 0
KPA1 080813Z 20004KT 02/M04 A3043 RMK A01 T00191035  RH  067%=      5-min Rain = 0
KPA1 080814Z 21005KT 02/M04 A3043 RMK A01 T00191036  RH  067%=      5-min Rain = 0
KPA1 080815Z 21005KT 02/M04 A3043 RMK A01 T00191036  RH  067%=      5-min Rain = 0
KPA1 080816Z 21006KT 02/M04 A3043 RMK A01 T00191041  RH  065%=      5-min Rain = 0
KPA1 080817Z 21006KT 02/M04 A3043 RMK A01 T00191042  RH  064%=      5-min Rain = 0
KPA1 080818Z 20005KT 02/M04 A3043 RMK A01 T00191041  RH  064%=      5-min Rain = 0
KPA1 080819Z 20005KT 02/M04 A3043 RMK A01 T00191042  RH  064%=      5-min Rain = 0
KPA1 080820Z 20006KT 02/M04 A3043 RMK A01 T00191043  RH  064%=      5-min Rain = 0
KPA1 080821Z 20005KT 02/M04 A3043 RMK A01 T00181044  RH  063%=      5-min Rain = 0
KPA1 080822Z 20004KT 02/M04 A3043 RMK A01 T00181044  RH  063%=      5-min Rain = 0
KPA1 080823Z 20005KT 02/M04 A3042 RMK A01 T00181043  RH  064%=      5-min Rain = 0
KPA1 080824Z 22004KT 02/M04 A3042 RMK A01 T00191042  RH  064%=      5-min Rain = 0
KPA1 080825Z 22003KT 02/M04 A3042 RMK A01 T00181041  RH  065%=      5-min Rain = 0
KPA1 080826Z 23004KT 02/M04 A3042 RMK A01 T00191040  RH  065%=      5-min Rain = 0
KPA1 080827Z 21004KT 02/M04 A3042 RMK A01 T00181039  RH  066%=      5-min Rain = 0
KPA1 080828Z 22004KT 02/M04 A3042 RMK A01 T00181038  RH  066%=      5-min Rain = 0
KPA1 080829Z 22004KT 02/M04 A3042 RMK A01 T00181037  RH  067%=      5-min Rain = 0
KPA1 080830Z 22004KT 02/M04 A3042 RMK A01 T00191037  RH  067%=      5-min Rain = 0
KPA1 080831Z 23004KT 02/M04 A3042 RMK A01 T00181035  RH  067%=      5-min Rain = 0
KPA1 080832Z 23005KT 02/M03 A3042 RMK A01 T00191033  RH  068%=      5-min Rain = 0
KPA1 080833Z 23006KT 02/M04 A3042 RMK A01 T00191035  RH  068%=      5-min Rain = 0
KPA1 080834Z 23006KT 02/M04 A3042 RMK A01 T00191037  RH  066%=      5-min Rain = 0
KPA1 080835Z 21005KT 02/M04 A3042 RMK A01 T00191040  RH  065%=      5-min Rain = 0
KPA1 080836Z 22005KT 02/M04 A3042 RMK A01 T00191040  RH  065%=      5-min Rain = 0
KPA1 080837Z 22005KT 02/M04 A3042 RMK A01 T00191041  RH  065%=      5-min Rain = 0
KPA1 080838Z 22005KT 02/M04 A3042 RMK A01 T00191042  RH  064%=      5-min Rain = 0
KPA1 080839Z 22005KT 02/M04 A3042 RMK A01 T00191042  RH  064%=      5-min Rain = 0
KPA1 080840Z 21005KT 02/M04 A3042 RMK A01 T00191042  RH  064%=      5-min Rain = 0
KPA1 080841Z 22005KT 02/M04 A3042 RMK A01 T00191042  RH  064%=      5-min Rain = 0
KPA1 080842Z 21005KT 02/M04 A3042 RMK A01 T00191041  RH  064%=      5-min Rain = 0
KPA1 080843Z 21005KT 02/M04 A3042 RMK A01 T00191042  RH  064%=      5-min Rain = 0
KPA1 080844Z 21005KT 02/M04 A3042 RMK A01 T00191042  RH  064%=      5-min Rain = 0
KPA1 080845Z 20005KT 02/M04 A3042 RMK A01 T00191042  RH  064%=      5-min Rain = 0
KPA1 080846Z 21005KT 02/M04 A3042 RMK A01 T00181041  RH  064%=      5-min Rain = 0
KPA1 080847Z 21004KT 02/M04 A3042 RMK A01 T00181040  RH  065%=      5-min Rain = 0
KPA1 080848Z 21004KT 02/M04 A3042 RMK A01 T00181039  RH  066%=      5-min Rain = 0
KPA1 080849Z 22004KT 02/M04 A3041 RMK A01 T00191037  RH  066%=      5-min Rain = 0
KPA1 080850Z 22003KT 02/M04 A3041 RMK A01 T00181038  RH  066%=      5-min Rain = 0
KPA1 080851Z 21003KT 02/M04 A3041 RMK A01 T00191036  RH  067%=      5-min Rain = 0
KPA1 080852Z 21004KT 02/M04 A3041 RMK A01 T00191035  RH  067%=      5-min Rain = 0
KPA1 080853Z 22004KT 02/M04 A3041 RMK A01 T00191036  RH  067%=      5-min Rain = 0
KPA1 080854Z 23005KT 02/M04 A3041 RMK A01 T00191038  RH  066%=      5-min Rain = 0
KPA1 080855Z 22004KT 02/M04 A3041 RMK A01 T00191038  RH  066%=      5-min Rain = 0
KPA1 080856Z 22005KT 02/M04 A3041 RMK A01 T00191037  RH  067%=      5-min Rain = 0
KPA1 080857Z 22005KT 02/M04 A3041 RMK A01 T00191039  RH  065%=      5-min Rain = 0
KPA1 080858Z 22005KT 02/M04 A3041 RMK A01 T00191040  RH  065%=      5-min Rain = 0
KPA1 080859Z 22005KT 02/M04 A3041 RMK A01 T00181040  RH  065%=      5-min Rain = 0
KPA1 080900Z 22004KT 02/M04 A3041 RMK A01 T00191038  RH  066%=      5-min Rain = 0
KPA1 080901Z 23005KT 02/M04 A3041 RMK A01 T00181038  RH  066%=      5-min Rain = 0
KPA1 080902Z 23005KT 02/M04 A3041 RMK A01 T00181038  RH  066%=      5-min Rain = 0
KPA1 080903Z 23005KT 02/M04 A3041 RMK A01 T00181038  RH  066%=      5-min Rain = 0
KPA1 080904Z 23005KT 02/M04 A3041 RMK A01 T00191037  RH  066%=      5-min Rain = 0
KPA1 080905Z 23005KT 02/M04 A3041 RMK A01 T00191037  RH  066%=      5-min Rain = 0
KPA1 080906Z 22004KT 02/M04 A3041 RMK A01 T00191037  RH  067%=      5-min Rain = 0
KPA1 080907Z 22004KT 02/M04 A3041 RMK A01 T00191040  RH  065%=      5-min Rain = 0
KPA1 080908Z 22004KT 02/M04 A3041 RMK A01 T00181040  RH  065%=      5-min Rain = 0
KPA1 080909Z 22005KT 02/M04 A3041 RMK A01 T00191040  RH  065%=      5-min Rain = 0
KPA1 080910Z 22004KT 02/M04 A3041 RMK A01 T00191040  RH  065%=      5-min Rain = 0
KPA1 080911Z 23004KT 02/M04 A3041 RMK A01 T00191040  RH  065%=      5-min Rain = 0
KPA1 080912Z 22004KT 02/M04 A3041 RMK A01 T00191040  RH  065%=      5-min Rain = 0
KPA1 080913Z 23003KT 02/M04 A3041 RMK A01 T00191040  RH  065%=      5-min Rain = 0
KPA1 080914Z 23004KT 02/M04 A3041 RMK A01 T00191037  RH  066%=      5-min Rain = 0
KPA1 080915Z 22004KT 02/M04 A3041 RMK A01 T00191036  RH  067%=      5-min Rain = 0
KPA1 080916Z 23004KT 02/M03 A3041 RMK A01 T00191034  RH  068%=      5-min Rain = 0
KPA1 080917Z 24004KT 02/M03 A3041 RMK A01 T00191033  RH  068%=      5-min Rain = 0
KPA1 080918Z 24005KT 02/M03 A3041 RMK A01 T00191033  RH  068%=      5-min Rain = 0
KPA1 080919Z 23005KT 02/M03 A3041 RMK A01 T00191034  RH  068%=      5-min Rain = 0
KPA1 080920Z 24004KT 02/M03 A3041 RMK A01 T00191034  RH  068%=      5-min Rain = 0
KPA1 080921Z 23004KT 02/M03 A3041 RMK A01 T00191033  RH  069%=      5-min Rain = 0
KPA1 080922Z 23004KT 02/M03 A3041 RMK A01 T00181032  RH  069%=      5-min Rain = 0
KPA1 080923Z 24005KT 02/M03 A3041 RMK A01 T00191031  RH  070%=      5-min Rain = 0
KPA1 080924Z 24005KT 02/M03 A304 RMK A01 T00181032  RH  069%=      5-min Rain = 0
KPA1 080925Z 24005KT 02/M03 A304 RMK A01 T00181032  RH  069%=      5-min Rain = 0
KPA1 080926Z 24005KT 02/M03 A304 RMK A01 T00181031  RH  070%=      5-min Rain = 0
KPA1 080927Z 23004KT 02/M03 A304 RMK A01 T00181030  RH  070%=      5-min Rain = 0
KPA1 080928Z 23004KT 02/M03 A304 RMK A01 T00181029  RH  071%=      5-min Rain = 0
KPA1 080929Z 23005KT 02/M03 A304 RMK A01 T00181029  RH  071%=      5-min Rain = 0
KPA1 080930Z 23004KT 02/M03 A304 RMK A01 T00181029  RH  071%=      5-min Rain = 0
KPA1 080931Z 23005KT 02/M03 A304 RMK A01 T00181028  RH  072%=      5-min Rain = 0
KPA1 080932Z 23004KT 02/M03 A304 RMK A01 T00181027  RH  072%=      5-min Rain = 0
KPA1 080933Z 23003KT 02/M03 A304 RMK A01 T00181027  RH  072%=      5-min Rain = 0
KPA1 080934Z 23004KT 02/M03 A304 RMK A01 T00181026  RH  073%=      5-min Rain = 0
KPA1 080935Z 22004KT 02/M03 A304 RMK A01 T00181025  RH  073%=      5-min Rain = 0
KPA1 080936Z 22004KT 02/M03 A304 RMK A01 T00181025  RH  073%=      5-min Rain = 0
KPA1 080937Z 22005KT 02/M03 A304 RMK A01 T00181025  RH  073%=      5-min Rain = 0
KPA1 080938Z 23005KT 02/M03 A304 RMK A01 T00181025  RH  073%=      5-min Rain = 0
KPA1 080939Z 23005KT 02/M03 A304 RMK A01 T00181025  RH  073%=      5-min Rain = 0
KPA1 080940Z 23004KT 02/M03 A304 RMK A01 T00181026  RH  073%=      5-min Rain = 0
KPA1 080941Z 22004KT 02/M03 A304 RMK A01 T00181025  RH  073%=      5-min Rain = 0
KPA1 080942Z 22004KT 02/M03 A304 RMK A01 T00181025  RH  073%=      5-min Rain = 0
KPA1 080943Z 21004KT 02/M02 A304 RMK A01 T00181024  RH  073%=      5-min Rain = 0
KPA1 080944Z 22005KT 02/M03 A304 RMK A01 T00181025  RH  073%=      5-min Rain = 0
KPA1 080945Z 21005KT 02/M03 A304 RMK A01 T00181026  RH  073%=      5-min Rain = 0
KPA1 080946Z 22005KT 02/M03 A304 RMK A01 T00181027  RH  072%=      5-min Rain = 0
KPA1 080947Z 22004KT 02/M03 A304 RMK A01 T00181027  RH  072%=      5-min Rain = 0
KPA1 080948Z 23005KT 02/M03 A304 RMK A01 T00181027  RH  072%=      5-min Rain = 0
KPA1 080949Z 21004KT 02/M03 A304 RMK A01 T00181028  RH  072%=      5-min Rain = 0
KPA1 080950Z 21004KT 02/M03 A304 RMK A01 T00181027  RH  072%=      5-min Rain = 0
KPA1 080951Z 22005KT 02/M03 A304 RMK A01 T00181028  RH  072%=      5-min Rain = 0
KPA1 080952Z 21005KT 02/M03 A304 RMK A01 T00181030  RH  071%=      5-min Rain = 0
KPA1 080953Z 21005KT 02/M03 A304 RMK A01 T00181030  RH  070%=      5-min Rain = 0
KPA1 080954Z 21005KT 02/M03 A304 RMK A01 T00181031  RH  070%=      5-min Rain = 0
KPA1 080955Z 22005KT 02/M03 A304 RMK A01 T00181031  RH  070%=      5-min Rain = 0
KPA1 080956Z 22004KT 02/M03 A304 RMK A01 T00171032  RH  070%=      5-min Rain = 0
KPA1 080957Z 21004KT 02/M03 A304 RMK A01 T00181031  RH  070%=      5-min Rain = 0
KPA1 080958Z 23004KT 02/M03 A304 RMK A01 T00181029  RH  071%=      5-min Rain = 0
KPA1 080959Z 22004KT 02/M03 A304 RMK A01 T00181030  RH  071%=      5-min Rain = 0
KPA1 081000Z 22004KT 02/M03 A304 RMK A01 T00181031  RH  070%=      5-min Rain = 0
KPA1 081001Z 22004KT 02/M03 A304 RMK A01 T00181030  RH  070%=      5-min Rain = 0
KPA1 081002Z 22004KT 02/M03 A304 RMK A01 T00181029  RH  071%=      5-min Rain = 0
KPA1 081003Z 21004KT 02/M03 A304 RMK A01 T00181029  RH  071%=      5-min Rain = 0
KPA1 081004Z 22005KT 02/M03 A304 RMK A01 T00181030  RH  071%=      5-min Rain = 0
KPA1 081005Z 22004KT 02/M03 A304 RMK A01 T00181031  RH  070%=      5-min Rain = 0
KPA1 081006Z 21004KT 02/M03 A304 RMK A01 T00171032  RH  070%=      5-min Rain = 0
KPA1 081007Z 22005KT 02/M03 A304 RMK A01 T00171032  RH  070%=      5-min Rain = 0
KPA1 081008Z 22005KT 02/M03 A304 RMK A01 T00181033  RH  069%=      5-min Rain = 0
KPA1 081009Z 22006KT 02/M03 A304 RMK A01 T00171033  RH  069%=      5-min Rain = 0
KPA1 081010Z 22005KT 02/M03 A304 RMK A01 T00171033  RH  069%=      5-min Rain = 0
KPA1 081011Z 21005KT 02/M03 A304 RMK A01 T00181032  RH  070%=      5-min Rain = 0
KPA1 081012Z 21004KT 02/M03 A304 RMK A01 T00181031  RH  070%=      5-min Rain = 0
KPA1 081013Z 22004KT 02/M03 A304 RMK A01 T00181030  RH  070%=      5-min Rain = 0
KPA1 081014Z 21005KT 02/M03 A304 RMK A01 T00181029  RH  071%=      5-min Rain = 0
KPA1 081015Z 22006KT 02/M03 A304 RMK A01 T00191029  RH  071%=      5-min Rain = 0
KPA1 081016Z 21005KT 02/M03 A304 RMK A01 T00191031  RH  070%=      5-min Rain = 0
KPA1 081017Z 21006KT 02/M03 A304 RMK A01 T00181031  RH  070%=      5-min Rain = 0
KPA1 081018Z 20005KT 02/M03 A304 RMK A01 T00191031  RH  070%=      5-min Rain = 0
KPA1 081019Z 20007KT 02/M03 A304 RMK A01 T00181031  RH  070%=      5-min Rain = 0
KPA1 081020Z 20006KT 02/M03 A3039 RMK A01 T00181032  RH  069%=      5-min Rain = 0
KPA1 081021Z 20005KT 02/M03 A3039 RMK A01 T00181032  RH  069%=      5-min Rain = 0
KPA1 081022Z 20005KT 02/M03 A3039 RMK A01 T00181030  RH  070%=      5-min Rain = 0
KPA1 081023Z 20006KT 02/M03 A3039 RMK A01 T00181030  RH  070%=      5-min Rain = 0
KPA1 081024Z 20006KT 02/M03 A3039 RMK A01 T00191031  RH  069%=      5-min Rain = 0
KPA1 081025Z 20005KT 02/M03 A3039 RMK A01 T00191031  RH  070%=      5-min Rain = 0
KPA1 081026Z 20005KT 02/M03 A3039 RMK A01 T00181030  RH  070%=      5-min Rain = 0
KPA1 081027Z 21006KT 02/M03 A3039 RMK A01 T00191029  RH  071%=      5-min Rain = 0
KPA1 081028Z 20005KT 02/M03 A3039 RMK A01 T00191029  RH  071%=      5-min Rain = 0
KPA1 081029Z 21005KT 02/M03 A304 RMK A01 T00181029  RH  071%=      5-min Rain = 0
KPA1 081030Z 21006KT 02/M03 A304 RMK A01 T00191028  RH  071%=      5-min Rain = 0
KPA1 081031Z 21006KT 02/M03 A304 RMK A01 T00191029  RH  071%=      5-min Rain = 0
KPA1 081032Z 21006KT 02/M03 A304 RMK A01 T00191028  RH  071%=      5-min Rain = 0
KPA1 081033Z 21006KT 02/M03 A304 RMK A01 T00181028  RH  072%=      5-min Rain = 0
KPA1 081034Z 22005KT 02/M03 A304 RMK A01 T00191028  RH  071%=      5-min Rain = 0
KPA1 081035Z 23007KT 02/M03 A304 RMK A01 T00191029  RH  070%=      5-min Rain = 0
KPA1 081036Z 22005KT 02/M03 A304 RMK A01 T00191032  RH  069%=      5-min Rain = 0
KPA1 081037Z 22007KT 02/M03 A304 RMK A01 T00191031  RH  070%=      5-min Rain = 0
KPA1 081038Z 21008KT 02/M03 A304 RMK A01 T00191031  RH  069%=      5-min Rain = 0
KPA1 081039Z 21007KT 02/M03 A304 RMK A01 T00191033  RH  068%=      5-min Rain = 0
KPA1 081040Z 21008KT 02/M03 A304 RMK A01 T00181034  RH  068%=      5-min Rain = 0
KPA1 081041Z 21008KT 02/M04 A304 RMK A01 T00181035  RH  068%=      5-min Rain = 0
KPA1 081042Z 22007KT 02/M04 A304 RMK A01 T00181035  RH  068%=      5-min Rain = 0
KPA1 081043Z 22007KT 02/M04 A304 RMK A01 T00181037  RH  067%=      5-min Rain = 0
KPA1 081044Z 22007KT 02/M04 A304 RMK A01 T00181036  RH  067%=      5-min Rain = 0
KPA1 081045Z 22006KT 02/M04 A304 RMK A01 T00181035  RH  068%=      5-min Rain = 0
KPA1 081046Z 22006KT 02/M03 A304 RMK A01 T00181033  RH  069%=      5-min Rain = 0
KPA1 081047Z 22007KT 02/M03 A304 RMK A01 T00191034  RH  068%=      5-min Rain = 0
KPA1 081048Z 22006KT 02/M03 A304 RMK A01 T00181034  RH  068%=      5-min Rain = 0
KPA1 081049Z 22008KT 02/M04 A304 RMK A01 T00181035  RH  068%=      5-min Rain = 0
KPA1 081050Z 21007KT 02/M04 A304 RMK A01 T00181036  RH  067%=      5-min Rain = 0
KPA1 081051Z 22006KT 02/M04 A304 RMK A01 T00191035  RH  068%=      5-min Rain = 0
KPA1 081052Z 21007KT 02/M03 A304 RMK A01 T00181034  RH  068%=      5-min Rain = 0
KPA1 081053Z 22006KT 02/M03 A304 RMK A01 T00181034  RH  068%=      5-min Rain = 0
KPA1 081054Z 21007KT 02/M03 A304 RMK A01 T00181034  RH  068%=      5-min Rain = 0
KPA1 081055Z 21007KT 02/M03 A304 RMK A01 T00191034  RH  068%=      5-min Rain = 0
KPA1 081056Z 21007KT 02/M03 A304 RMK A01 T00181034  RH  068%=      5-min Rain = 0
KPA1 081057Z 21006KT 02/M03 A304 RMK A01 T00181034  RH  068%=      5-min Rain = 0
KPA1 081058Z 20005KT 02/M03 A304 RMK A01 T00191033  RH  069%=      5-min Rain = 0
KPA1 081059Z 20006KT 02/M03 A3039 RMK A01 T00181032  RH  069%=      5-min Rain = 0
KPA1 081100Z 19006KT 02/M03 A3039 RMK A01 T00191031  RH  069%=      5-min Rain = 0
KPA1 081101Z 21006KT 02/M03 A3039 RMK A01 T00191032  RH  069%=      5-min Rain = 0
KPA1 081102Z 20006KT 02/M03 A3039 RMK A01 T00191032  RH  069%=      5-min Rain = 0
KPA1 081103Z 20006KT 02/M03 A3039 RMK A01 T00191032  RH  069%=      5-min Rain = 0
KPA1 081104Z 20007KT 02/M03 A3039 RMK A01 T00181033  RH  069%=      5-min Rain = 0
KPA1 081105Z 20006KT 02/M03 A3039 RMK A01 T00181034  RH  068%=      5-min Rain = 0
KPA1 081106Z 19007KT 02/M03 A3039 RMK A01 T00181033  RH  069%=      5-min Rain = 0
KPA1 081107Z 19009KT 02/M03 A3039 RMK A01 T00191034  RH  068%=      5-min Rain = 0
KPA1 081108Z 19008KT 02/M04 A3039 RMK A01 T00181035  RH  068%=      5-min Rain = 0
KPA1 081109Z 19008KT 02/M04 A3039 RMK A01 T00181035  RH  068%=      5-min Rain = 0
KPA1 081110Z 20008KT 02/M04 A3039 RMK A01 T00181035  RH  068%=      5-min Rain = 0
KPA1 081111Z 20007KT 02/M03 A3039 RMK A01 T00181033  RH  069%=      5-min Rain = 0
KPA1 081112Z 20008KT 02/M03 A3039 RMK A01 T00181033  RH  069%=      5-min Rain = 0
KPA1 081113Z 19007KT 02/M03 A3039 RMK A01 T00181034  RH  069%=      5-min Rain = 0
KPA1 081114Z 19007KT 02/M03 A3038 RMK A01 T00181033  RH  069%=      5-min Rain = 0
KPA1 081115Z 20007KT 02/M03 A3038 RMK A01 T00181032  RH  069%=      5-min Rain = 0
KPA1 081116Z 19007KT 02/M03 A3038 RMK A01 T00181032  RH  070%=      5-min Rain = 0
KPA1 081117Z 19007KT 02/M03 A3038 RMK A01 T00181031  RH  070%=      5-min Rain = 0
KPA1 081118Z 19006KT 02/M03 A3038 RMK A01 T00181031  RH  070%=      5-min Rain = 0
KPA1 081119Z 18008KT 02/M03 A3038 RMK A01 T00181030  RH  070%=      5-min Rain = 0
KPA1 081120Z 18007KT 02/M03 A3038 RMK A01 T00181032  RH  070%=      5-min Rain = 0
KPA1 081121Z 18008KT 02/M03 A3037 RMK A01 T00181034  RH  069%=      5-min Rain = 0
KPA1 081122Z 18009KT 02/M04 A3037 RMK A01 T00181036  RH  068%=      5-min Rain = 0
KPA1 081123Z 19008KT 02/M04 A3037 RMK A01 T00181038  RH  067%=      5-min Rain = 0
KPA1 081124Z 19007KT 02/M04 A3037 RMK A01 T00181038  RH  066%=      5-min Rain = 0
KPA1 081125Z 19009KT 02/M04 A3037 RMK A01 T00181038  RH  066%=      5-min Rain = 0
KPA1 081126Z 19007KT 02/M04 A3038 RMK A01 T00181038  RH  066%=      5-min Rain = 0
KPA1 081127Z 19005KT 02/M04 A3038 RMK A01 T00181037  RH  067%=      5-min Rain = 0
KPA1 081128Z 18006KT 02/M04 A3038 RMK A01 T00181036  RH  067%=      5-min Rain = 0
KPA1 081129Z 18008KT 02/M04 A3038 RMK A01 T00181038  RH  066%=      5-min Rain = 0
KPA1 081130Z 18006KT 02/M04 A3038 RMK A01 T00181040  RH  065%=      5-min Rain = 0
KPA1 081131Z 18006KT 02/M04 A3038 RMK A01 T00181039  RH  066%=      5-min Rain = 0
KPA1 081132Z 19008KT 02/M04 A3038 RMK A01 T00181040  RH  066%=      5-min Rain = 0
KPA1 081133Z 18008KT 02/M04 A3038 RMK A01 T00181041  RH  065%=      5-min Rain = 0
KPA1 081134Z 19006KT 02/M04 A3038 RMK A01 T00181042  RH  065%=      5-min Rain = 0
KPA1 081135Z 19005KT 02/M04 A3038 RMK A01 T00181040  RH  065%=      5-min Rain = 0
KPA1 081136Z 19006KT 02/M04 A3038 RMK A01 T00181039  RH  066%=      5-min Rain = 0
KPA1 081137Z 19006KT 02/M04 A3038 RMK A01 T00181039  RH  066%=      5-min Rain = 0
KPA1 081138Z 19007KT 02/M04 A3038 RMK A01 T00181040  RH  065%=      5-min Rain = 0
KPA1 081139Z 20006KT 02/M04 A3038 RMK A01 T00181041  RH  065%=      5-min Rain = 0
KPA1 081140Z 20007KT 02/M04 A3038 RMK A01 T00181041  RH  065%=      5-min Rain = 0
KPA1 081141Z 20007KT 02/M04 A3038 RMK A01 T00181041  RH  065%=      5-min Rain = 0
KPA1 081142Z 20005KT 02/M04 A3038 RMK A01 T00181041  RH  065%=      5-min Rain = 0
KPA1 081143Z 19005KT 02/M04 A3038 RMK A01 T00181039  RH  066%=      5-min Rain = 0
KPA1 081144Z 19005KT 02/M04 A3039 RMK A01 T00181039  RH  066%=      5-min Rain = 0
KPA1 081145Z 20006KT 02/M04 A3039 RMK A01 T00181039  RH  066%=      5-min Rain = 0
KPA1 081146Z 21005KT 02/M04 A3039 RMK A01 T00181038  RH  066%=      5-min Rain = 0
KPA1 081147Z 21005KT 02/M04 A3039 RMK A01 T00181037  RH  067%=      5-min Rain = 0
KPA1 081148Z 21006KT 02/M04 A3039 RMK A01 T00181037  RH  067%=      5-min Rain = 0
KPA1 081149Z 20007KT 02/M04 A3039 RMK A01 T00181038  RH  066%=      5-min Rain = 0
KPA1 081150Z 20007KT 02/M04 A3039 RMK A01 T00181039  RH  066%=      5-min Rain = 0
KPA1 081151Z 20007KT 02/M04 A3039 RMK A01 T00181039  RH  066%=      5-min Rain = 0
KPA1 081152Z 19008KT 02/M04 A3039 RMK A01 T00181039  RH  066%=      5-min Rain = 0
KPA1 081153Z 19007KT 02/M04 A3039 RMK A01 T00181038  RH  066%=      5-min Rain = 0
KPA1 081154Z 19007KT 02/M04 A3039 RMK A01 T00191038  RH  066%=      5-min Rain = 0
KPA1 081155Z 19007KT 02/M04 A3039 RMK A01 T00191037  RH  067%=      5-min Rain = 0
KPA1 081156Z 19006KT 02/M04 A3039 RMK A01 T00181036  RH  067%=      5-min Rain = 0
KPA1 081157Z 20005KT 02/M04 A3039 RMK A01 T00181035  RH  068%=      5-min Rain = 0
KPA1 081158Z 20006KT 02/M03 A3038 RMK A01 T00191034  RH  068%=      5-min Rain = 0
KPA1 081159Z 19006KT 02/M03 A3038 RMK A01 T00191034  RH  068%=      5-min Rain = 0
KPA1 081200Z 19008KT 02/M03 A3038 RMK A01 T00191034  RH  068%=      5-min Rain = 0
KPA1 081201Z 19008KT 02/M04 A3038 RMK A01 T00191035  RH  067%=      5-min Rain = 0
KPA1 081202Z 19008KT 02/M04 A3038 RMK A01 T00191036  RH  067%=      5-min Rain = 0
KPA1 081203Z 19008KT 02/M04 A3038 RMK A01 T00191036  RH  067%=      5-min Rain = 0
KPA1 081204Z 19009KT 02/M04 A3038 RMK A01 T00191035  RH  067%=      5-min Rain = 0
KPA1 081205Z 19009KT 02/M04 A3038 RMK A01 T00191036  RH  067%=      5-min Rain = 0
KPA1 081206Z 19008KT 02/M04 A3038 RMK A01 T00191036  RH  067%=      5-min Rain = 0
KPA1 081207Z 18007KT 02/M04 A3038 RMK A01 T00181036  RH  067%=      5-min Rain = 0
KPA1 081208Z 19006KT 02/M03 A3038 RMK A01 T00191034  RH  068%=      5-min Rain = 0
KPA1 081209Z 19007KT 02/M03 A3038 RMK A01 T00181034  RH  068%=      5-min Rain = 0
KPA1 081210Z 19006KT 02/M03 A3038 RMK A01 T00191034  RH  068%=      5-min Rain = 0
KPA1 081211Z 20006KT 02/M03 A3038 RMK A01 T00181033  RH  069%=      5-min Rain = 0
KPA1 081212Z 19007KT 02/M03 A3038 RMK A01 T00181033  RH  068%=      5-min Rain = 0
KPA1 081213Z 19005KT 02/M03 A3039 RMK A01 T00191033  RH  068%=      5-min Rain = 0
KPA1 081214Z 19005KT 02/M03 A3039 RMK A01 T00191033  RH  069%=      5-min Rain = 0
KPA1 081215Z 19005KT 02/M03 A3039 RMK A01 T00191032  RH  069%=      5-min Rain = 0
KPA1 081216Z 18005KT 02/M03 A3039 RMK A01 T00191032  RH  069%=      5-min Rain = 0
KPA1 081217Z 19005KT 02/M03 A3039 RMK A01 T00191032  RH  069%=      5-min Rain = 0
KPA1 081218Z 20007KT 02/M03 A3039 RMK A01 T00191032  RH  069%=      5-min Rain = 0
KPA1 081219Z 19007KT 02/M03 A3039 RMK A01 T00191032  RH  069%=      5-min Rain = 0
KPA1 081220Z 19007KT 02/M03 A3039 RMK A01 T00191032  RH  069%=      5-min Rain = 0
KPA1 081221Z 20007KT 02/M03 A3039 RMK A01 T00191033  RH  069%=      5-min Rain = 0
KPA1 081222Z 21007KT 02/M03 A3039 RMK A01 T00191032  RH  069%=      5-min Rain = 0
KPA1 081223Z 20007KT 02/M03 A3039 RMK A01 T00191032  RH  069%=      5-min Rain = 0
KPA1 081224Z 20007KT 02/M03 A3039 RMK A01 T00191032  RH  069%=      5-min Rain = 0
KPA1 081225Z 20007KT 02/M03 A3039 RMK A01 T00191032  RH  069%=      5-min Rain = 0
KPA1 081226Z 20007KT 02/M03 A3039 RMK A01 T00191032  RH  069%=      5-min Rain = 0
KPA1 081227Z 20006KT 02/M03 A3039 RMK A01 T00191032  RH  069%=      5-min Rain = 0
KPA1 081228Z 19006KT 02/M03 A3039 RMK A01 T00191031  RH  069%=      5-min Rain = 0
KPA1 081229Z 20006KT 02/M03 A3039 RMK A01 T00191031  RH  069%=      5-min Rain = 0
KPA1 081230Z 20005KT 02/M03 A3039 RMK A01 T00191031  RH  069%=      5-min Rain = 0
KPA1 081231Z 21007KT 02/M03 A3039 RMK A01 T00191030  RH  070%=      5-min Rain = 0
KPA1 081232Z 21007KT 02/M03 A3039 RMK A01 T00191029  RH  070%=      5-min Rain = 0
KPA1 081233Z 21007KT 02/M03 A3039 RMK A01 T00191028  RH  071%=      5-min Rain = 0
KPA1 081234Z 21007KT 02/M03 A3039 RMK A01 T00191028  RH  071%=      5-min Rain = 0
KPA1 081235Z 21008KT 02/M03 A3039 RMK A01 T00191028  RH  071%=      5-min Rain = 0
KPA1 081236Z 21009KT 02/M03 A3039 RMK A01 T00191027  RH  071%=      5-min Rain = 0
KPA1 081237Z 21008KT 02/M03 A3039 RMK A01 T00191027  RH  072%=      5-min Rain = 0
KPA1 081238Z 20008KT 02/M03 A3039 RMK A01 T00191026  RH  072%=      5-min Rain = 0
KPA1 081239Z 20009KT 02/M03 A3038 RMK A01 T00191026  RH  072%=      5-min Rain = 0
KPA1 081240Z 21009KT 02/M03 A3038 RMK A01 T00191026  RH  072%=      5-min Rain = 0
KPA1 081241Z 20007KT 02/M03 A3038 RMK A01 T00191025  RH  072%=      5-min Rain = 0
KPA1 081242Z 21008KT 02/M02 A3038 RMK A01 T00191024  RH  073%=      5-min Rain = 0
KPA1 081243Z 21008KT 02/M02 A3038 RMK A01 T00191023  RH  073%=      5-min Rain = 0
KPA1 081244Z 21008KT 02/M02 A3038 RMK A01 T00191023  RH  074%=      5-min Rain = 0
KPA1 081245Z 21008KT 02/M02 A3038 RMK A01 T00191023  RH  074%=      5-min Rain = 0
KPA1 081246Z 21008KT 02/M02 A3038 RMK A01 T00191023  RH  074%=      5-min Rain = 0
KPA1 081247Z 21008KT 02/M02 A3039 RMK A01 T00191023  RH  074%=      5-min Rain = 0
KPA1 081248Z 21008KT 02/M02 A3039 RMK A01 T00191023  RH  074%=      5-min Rain = 0
KPA1 081249Z 21008KT 02/M02 A3039 RMK A01 T00191023  RH  074%=      5-min Rain = 0
KPA1 081250Z 21007KT 02/M02 A3039 RMK A01 T00191022  RH  074%=      5-min Rain = 0
KPA1 081251Z 21009KT 02/M02 A3039 RMK A01 T00191021  RH  075%=      5-min Rain = 0
KPA1 081252Z 21007KT 02/M02 A3039 RMK A01 T00191022  RH  074%=      5-min Rain = 0
KPA1 081253Z 21007KT 02/M02 A3039 RMK A01 T00191020  RH  075%=      5-min Rain = 0
KPA1 081254Z 21006KT 02/M02 A3039 RMK A01 T00191021  RH  075%=      5-min Rain = 0
KPA1 081255Z 21006KT 02/M02 A3039 RMK A01 T00191021  RH  075%=      5-min Rain = 0
KPA1 081256Z 20007KT 02/M02 A3039 RMK A01 T00191020  RH  075%=      5-min Rain = 0
KPA1 081257Z 20007KT 02/M02 A3039 RMK A01 T00191021  RH  075%=      5-min Rain = 0
KPA1 081258Z 20007KT 02/M02 A3039 RMK A01 T00191020  RH  075%=      5-min Rain = 0
KPA1 081259Z 20007KT 02/M02 A3039 RMK A01 T00191020  RH  075%=      5-min Rain = 0
KPA1 081300Z 21007KT 02/M02 A3039 RMK A01 T00191020  RH  075%=      5-min Rain = 0
KPA1 081301Z 21007KT 02/M02 A3039 RMK A01 T00191020  RH  075%=      5-min Rain = 0
KPA1 081302Z 21007KT 02/M02 A3039 RMK A01 T00191020  RH  075%=      5-min Rain = 0
KPA1 081303Z 20006KT 02/M02 A3039 RMK A01 T00191020  RH  075%=      5-min Rain = 0
KPA1 081304Z 20007KT 02/M02 A3038 RMK A01 T00191020  RH  075%=      5-min Rain = 0
KPA1 081305Z 20006KT 02/M02 A3038 RMK A01 T00191019  RH  076%=      5-min Rain = 0
KPA1 081306Z 20008KT 02/M02 A3038 RMK A01 T00191018  RH  076%=      5-min Rain = 0
KPA1 081307Z 20008KT 02/M02 A3038 RMK A01 T00201018  RH  076%=      5-min Rain = 0
KPA1 081308Z 19007KT 02/M02 A3038 RMK A01 T00201019  RH  076%=      5-min Rain = 0
KPA1 081309Z 19008KT 02/M02 A3038 RMK A01 T00191018  RH  076%=      5-min Rain = 0
KPA1 081310Z 19008KT 02/M02 A3038 RMK A01 T00191017  RH  077%=      5-min Rain = 0
KPA1 081311Z 19008KT 02/M02 A3038 RMK A01 T00191017  RH  077%=      5-min Rain = 0
KPA1 081312Z 20009KT 02/M02 A3038 RMK A01 T00191017  RH  077%=      5-min Rain = 0
KPA1 081313Z 20008KT 02/M02 A3038 RMK A01 T00191018  RH  076%=      5-min Rain = 0
KPA1 081314Z 19008KT 02/M02 A3039 RMK A01 T00191017  RH  077%=      5-min Rain = 0
KPA1 081315Z 20008KT 02/M02 A3039 RMK A01 T00191017  RH  077%=      5-min Rain = 0
KPA1 081316Z 20009KT 02/M02 A3039 RMK A01 T00191017  RH  077%=      5-min Rain = 0
KPA1 081317Z 19009KT 02/M02 A3039 RMK A01 T00191017  RH  077%=      5-min Rain = 0
KPA1 081318Z 20008KT 02/M02 A3038 RMK A01 T00191017  RH  077%=      5-min Rain = 0
KPA1 081319Z 19008KT 02/M02 A3038 RMK A01 T00191017  RH  077%=      5-min Rain = 0
KPA1 081320Z 19008KT 02/M02 A3038 RMK A01 T00191016  RH  077%=      5-min Rain = 0
KPA1 081321Z 20008KT 02/M02 A3038 RMK A01 T00191016  RH  077%=      5-min Rain = 0
KPA1 081322Z 19006KT 02/M02 A3038 RMK A01 T00191015  RH  078%=      5-min Rain = 0
KPA1 081323Z 19007KT 02/M02 A3039 RMK A01 T00201015  RH  078%=      5-min Rain = 0
KPA1 081324Z 19008KT 02/M02 A3039 RMK A01 T00201015  RH  077%=      5-min Rain = 0
KPA1 081325Z 19008KT 02/M02 A3039 RMK A01 T00201016  RH  077%=      5-min Rain = 0
KPA1 081326Z 19007KT 02/M02 A3039 RMK A01 T00201016  RH  077%=      5-min Rain = 0
KPA1 081327Z 19008KT 02/M02 A3039 RMK A01 T00201016  RH  077%=      5-min Rain = 0
KPA1 081328Z 19007KT 02/M02 A3039 RMK A01 T00201016  RH  077%=      5-min Rain = 0
KPA1 081329Z 19007KT 02/M02 A3039 RMK A01 T00201015  RH  078%=      5-min Rain = 0
KPA1 081330Z 19006KT 02/M02 A3039 RMK A01 T00201015  RH  078%=      5-min Rain = 0
KPA1 081331Z 18007KT 02/M02 A3039 RMK A01 T00201015  RH  078%=      5-min Rain = 0
KPA1 081332Z 19008KT 02/M01 A3039 RMK A01 T00201014  RH  078%=      5-min Rain = 0
KPA1 081333Z 19007KT 02/M01 A3039 RMK A01 T00201014  RH  078%=      5-min Rain = 0
KPA1 081334Z 19008KT 02/M01 A3039 RMK A01 T00201014  RH  078%=      5-min Rain = 0
KPA1 081335Z 19009KT 02/M01 A3039 RMK A01 T00201014  RH  078%=      5-min Rain = 0
KPA1 081336Z 19008KT 02/M01 A3038 RMK A01 T00211014  RH  078%=      5-min Rain = 0
KPA1 081337Z 19008KT 02/M01 A3038 RMK A01 T00201013  RH  078%=      5-min Rain = 0
KPA1 081338Z 19010KT 02/M01 A3038 RMK A01 T00211012  RH  079%=      5-min Rain = 0
KPA1 081339Z 19010KT 02/M01 A3038 RMK A01 T00211013  RH  078%=      5-min Rain = 0
KPA1 081340Z 18009KT 02/M01 A3038 RMK A01 T00211012  RH  079%=      5-min Rain = 0
KPA1 081341Z 18010KT 02/M01 A3038 RMK A01 T00211012  RH  079%=      5-min Rain = 0
KPA1 081342Z 19011KT 02/M01 A3038 RMK A01 T00211012  RH  079%=      5-min Rain = 0
KPA1 081343Z 19011KT 02/M01 A3037 RMK A01 T00211012  RH  079%=      5-min Rain = 0
KPA1 081344Z 19010KT 02/M01 A3037 RMK A01 T00211012  RH  079%=      5-min Rain = 0
KPA1 081345Z 18009KT 02/M01 A3037 RMK A01 T00211011  RH  079%=      5-min Rain = 0
KPA1 081346Z 18009KT 02/M01 A3037 RMK A01 T00211011  RH  079%=      5-min Rain = 0
KPA1 081347Z 18009KT 02/M01 A3037 RMK A01 T00211012  RH  079%=      5-min Rain = 0
KPA1 081348Z 18010KT 02/M01 A3037 RMK A01 T00211011  RH  079%=      5-min Rain = 0
KPA1 081349Z 18009KT 02/M01 A3038 RMK A01 T00211011  RH  079%=      5-min Rain = 0
KPA1 081350Z 18009KT 02/M01 A3038 RMK A01 T00211010  RH  080%=      5-min Rain = 0
KPA1 081351Z 19008KT 02/M01 A3038 RMK A01 T00211010  RH  080%=      5-min Rain = 0
KPA1 081352Z 19008KT 02/M01 A3038 RMK A01 T00221008  RH  081%=      5-min Rain = 0
KPA1 081353Z 19008KT 02/M01 A3038 RMK A01 T00221008  RH  081%=      5-min Rain = 0
KPA1 081354Z 19008KT 02/M01 A3038 RMK A01 T00221008  RH  081%=      5-min Rain = 0
KPA1 081355Z 18008KT 02/M01 A3038 RMK A01 T00221008  RH  081%=      5-min Rain = 0
KPA1 081356Z 19008KT 02/M01 A3038 RMK A01 T00231007  RH  081%=      5-min Rain = 0
KPA1 081357Z 18008KT 02/M01 A3038 RMK A01 T00231007  RH  081%=      5-min Rain = 0
KPA1 081358Z 19007KT 02/M01 A3038 RMK A01 T00231007  RH  081%=      5-min Rain = 0
KPA1 081359Z 19007KT 02/M01 A3038 RMK A01 T00231006  RH  081%=      5-min Rain = 0
KPA1 081400Z 18007KT 02/M01 A3038 RMK A01 T00231006  RH  081%=      5-min Rain = 0
KPA1 081401Z 19007KT 02/M01 A3038 RMK A01 T00241005  RH  081%=      5-min Rain = 0
KPA1 081402Z 19009KT 02/M00 A3038 RMK A01 T00241004  RH  082%=      5-min Rain = 0
KPA1 081403Z 19008KT 02/M00 A3038 RMK A01 T00241004  RH  082%=      5-min Rain = 0
KPA1 081404Z 19008KT 02/M00 A3038 RMK A01 T00241003  RH  082%=      5-min Rain = 0
KPA1 081405Z 19008KT 02/M00 A3038 RMK A01 T00241003  RH  082%=      5-min Rain = 0
KPA1 081406Z 18007KT 03/M00 A3038 RMK A01 T00251002  RH  082%=      5-min Rain = 0
KPA1 081407Z 19008KT 03/M00 A3038 RMK A01 T00251002  RH  082%=      5-min Rain = 0
KPA1 081408Z 19009KT 03/M00 A3038 RMK A01 T00251003  RH  082%=      5-min Rain = 0
KPA1 081409Z 19008KT 03/M00 A3038 RMK A01 T00251003  RH  082%=      5-min Rain = 0
KPA1 081410Z 19009KT 03/M00 A3038 RMK A01 T00251002  RH  082%=      5-min Rain = 0
KPA1 081411Z 19009KT 03/M00 A3038 RMK A01 T00251001  RH  082%=      5-min Rain = 0
KPA1 081412Z 19009KT 03/M00 A3038 RMK A01 T00251001  RH  083%=      5-min Rain = 0
KPA1 081413Z 19009KT 03/00 A3038 RMK A01 T00260000  RH  083%=      5-min Rain = 0
KPA1 081414Z 19009KT 03/00 A3038 RMK A01 T00260000  RH  083%=      5-min Rain = 0
KPA1 081415Z 19008KT 03/00 A3038 RMK A01 T00260001  RH  084%=      5-min Rain = 0
KPA1 081416Z 19007KT 03/00 A3038 RMK A01 T00260002  RH  084%=      5-min Rain = 0
KPA1 081417Z 19008KT 03/00 A3038 RMK A01 T00260003  RH  085%=      5-min Rain = 0
KPA1 081418Z 19009KT 03/00 A3038 RMK A01 T00270004  RH  085%=      5-min Rain = 0
KPA1 081419Z 18009KT 03/01 A3038 RMK A01 T00270005  RH  085%=      5-min Rain = 0
KPA1 081420Z 19007KT 03/01 A3038 RMK A01 T00270005  RH  086%=      5-min Rain = 0
KPA1 081421Z 19007KT 03/01 A3038 RMK A01 T00270006  RH  086%=      5-min Rain = 0
KPA1 081422Z 19008KT 03/01 A3038 RMK A01 T00280006  RH  086%=      5-min Rain = 0
KPA1 081423Z 19008KT 03/01 A3038 RMK A01 T00270006  RH  086%=      5-min Rain = 0
KPA1 081424Z 19007KT 03/01 A3038 RMK A01 T00280006  RH  085%=      5-min Rain = 0
KPA1 081425Z 19007KT 03/01 A3038 RMK A01 T00280006  RH  085%=      5-min Rain = 0
KPA1 081426Z 19008KT 03/01 A3038 RMK A01 T00280005  RH  085%=      5-min Rain = 0
KPA1 081427Z 18007KT 03/01 A3038 RMK A01 T00280005  RH  085%=      5-min Rain = 0
KPA1 081428Z 18008KT 03/01 A3038 RMK A01 T00280005  RH  085%=      5-min Rain = 0
KPA1 081429Z 19007KT 03/01 A3038 RMK A01 T00280005  RH  085%=      5-min Rain = 0
KPA1 081430Z 19008KT 03/01 A3038 RMK A01 T00280006  RH  086%=      5-min Rain = 0
KPA1 081431Z 19006KT 03/01 A3038 RMK A01 T00280006  RH  086%=      5-min Rain = 0
KPA1 081432Z 18008KT 03/01 A3038 RMK A01 T00280007  RH  086%=      5-min Rain = 0
KPA1 081433Z 19009KT 03/01 A3038 RMK A01 T00280007  RH  086%=      5-min Rain = 0
KPA1 081434Z 18007KT 03/01 A3038 RMK A01 T00280008  RH  087%=      5-min Rain = 0
KPA1 081435Z 19007KT 03/01 A3038 RMK A01 T00280008  RH  087%=      5-min Rain = 0
KPA1 081436Z 18007KT 03/01 A3038 RMK A01 T00280008  RH  087%=      5-min Rain = 0
KPA1 081437Z 19007KT 03/01 A3038 RMK A01 T00290009  RH  087%=      5-min Rain = 0
KPA1 081438Z 18009KT 03/01 A3038 RMK A01 T00300009  RH  087%=      5-min Rain = 0
KPA1 081439Z 18009KT 03/01 A3038 RMK A01 T00300009  RH  086%=      5-min Rain = 0
KPA1 081440Z 18011KT 03/01 A3038 RMK A01 T00300008  RH  086%=      5-min Rain = 0
KPA1 081441Z 18009KT 03/01 A3038 RMK A01 T00300008  RH  085%=      5-min Rain = 0
KPA1 081442Z 18010KT 03/01 A3038 RMK A01 T00290007  RH  086%=      5-min Rain = 0
KPA1 081443Z 18008KT 03/01 A3038 RMK A01 T00300008  RH  086%=      5-min Rain = 0
KPA1 081444Z 18009KT 03/01 A3038 RMK A01 T00310009  RH  086%=      5-min Rain = 0
KPA1 081445Z 19010KT 03/01 A3038 RMK A01 T00310010  RH  086%=      5-min Rain = 0
KPA1 081446Z 19008KT 03/01 A3038 RMK A01 T00310010  RH  086%=      5-min Rain = 0
KPA1 081447Z 19007KT 03/01 A3038 RMK A01 T00320009  RH  085%=      5-min Rain = 0
KPA1 081448Z 19008KT 03/01 A3038 RMK A01 T00310008  RH  085%=      5-min Rain = 0
KPA1 081449Z 18005KT 03/01 A3038 RMK A01 T00310008  RH  085%=      5-min Rain = 0
KPA1 081450Z 19008KT 03/01 A3038 RMK A01 T00320009  RH  085%=      5-min Rain = 0
KPA1 081451Z 18007KT 03/01 A3038 RMK A01 T00320008  RH  084%=      5-min Rain = 0
KPA1 081452Z 19007KT 03/01 A3038 RMK A01 T00320009  RH  084%=      5-min Rain = 0
KPA1 081453Z 18008KT 03/01 A3038 RMK A01 T00320008  RH  084%=      5-min Rain = 0
KPA1 081454Z 19008KT 03/01 A3039 RMK A01 T00330009  RH  084%=      5-min Rain = 0
KPA1 081455Z 19007KT 03/01 A3039 RMK A01 T00330010  RH  085%=      5-min Rain = 0
KPA1 081456Z 19008KT 03/01 A3039 RMK A01 T00330010  RH  085%=      5-min Rain = 0
KPA1 081457Z 19007KT 03/01 A3039 RMK A01 T00330011  RH  085%=      5-min Rain = 0
KPA1 081458Z 19007KT 03/01 A3039 RMK A01 T00330012  RH  086%=      5-min Rain = 0
KPA1 081459Z 19007KT 03/01 A3039 RMK A01 T00340013  RH  086%=      5-min Rain = 0
KPA1 081500Z 19007KT 04/01 A3039 RMK A01 T00350014  RH  086%=      5-min Rain = 0
KPA1 081501Z 18007KT 04/01 A3039 RMK A01 T00350013  RH  086%=      5-min Rain = 0
KPA1 081502Z 19008KT 04/01 A3039 RMK A01 T00350013  RH  086%=      5-min Rain = 0
KPA1 081503Z 19009KT 04/01 A3039 RMK A01 T00350013  RH  086%=      5-min Rain = 0
KPA1 081504Z 20008KT 04/01 A3039 RMK A01 T00350013  RH  085%=      5-min Rain = 0
KPA1 081505Z 19007KT 04/01 A3039 RMK A01 T00360014  RH  086%=      5-min Rain = 0
KPA1 081506Z 19007KT 04/01 A3039 RMK A01 T00360014  RH  085%=      5-min Rain = 0
KPA1 081507Z 19007KT 04/01 A3039 RMK A01 T00360013  RH  085%=      5-min Rain = 0
KPA1 081508Z 19007KT 04/01 A3039 RMK A01 T00360013  RH  085%=      5-min Rain = 0
KPA1 081509Z 19006KT 04/01 A3039 RMK A01 T00360014  RH  086%=      5-min Rain = 0
KPA1 081510Z 18006KT 04/01 A3039 RMK A01 T00360014  RH  085%=      5-min Rain = 0
KPA1 081511Z 19006KT 04/02 A3039 RMK A01 T00370015  RH  085%=      5-min Rain = 0
KPA1 081512Z 19007KT 04/02 A3039 RMK A01 T00380015  RH  085%=      5-min Rain = 0
KPA1 081513Z 20007KT 04/02 A3039 RMK A01 T00380016  RH  085%=      5-min Rain = 0
KPA1 081514Z 20008KT 04/02 A3039 RMK A01 T00390017  RH  086%=      5-min Rain = 0
KPA1 081515Z 19008KT 04/02 A3039 RMK A01 T00390016  RH  085%=      5-min Rain = 0
KPA1 081516Z 20007KT 04/02 A3039 RMK A01 T00380016  RH  085%=      5-min Rain = 0
KPA1 081517Z 20008KT 04/02 A3039 RMK A01 T00380016  RH  086%=      5-min Rain = 0
KPA1 081518Z 20008KT 04/02 A3039 RMK A01 T00390017  RH  086%=      5-min Rain = 0
KPA1 081519Z 20008KT 04/02 A3039 RMK A01 T00390017  RH  086%=      5-min Rain = 0
KPA1 081520Z 20007KT 04/02 A3039 RMK A01 T00390017  RH  086%=      5-min Rain = 0
KPA1 081521Z 20008KT 04/02 A3039 RMK A01 T00400018  RH  086%=      5-min Rain = 0
KPA1 081522Z 20008KT 04/02 A3039 RMK A01 T00390017  RH  086%=      5-min Rain = 0
KPA1 081523Z 20007KT 04/02 A3039 RMK A01 T00400018  RH  086%=      5-min Rain = 0
KPA1 081524Z 21006KT 04/02 A3039 RMK A01 T00400019  RH  086%=      5-min Rain = 0
KPA1 081525Z 22006KT 04/02 A3039 RMK A01 T00410020  RH  086%=      5-min Rain = 0
KPA1 081526Z 21007KT 04/02 A3039 RMK A01 T00410021  RH  086%=      5-min Rain = 0
KPA1 081527Z 20007KT 04/02 A3039 RMK A01 T00410021  RH  086%=      5-min Rain = 0
KPA1 081528Z 21007KT 04/02 A3039 RMK A01 T00420021  RH  086%=      5-min Rain = 0
KPA1 081529Z 21007KT 04/02 A3039 RMK A01 T00420022  RH  087%=      5-min Rain = 0
KPA1 081530Z 21008KT 04/02 A3039 RMK A01 T00420022  RH  087%=      5-min Rain = 0
KPA1 081531Z 21007KT 04/02 A3039 RMK A01 T00420022  RH  086%=      5-min Rain = 0
KPA1 081532Z 20007KT 04/02 A3039 RMK A01 T00430022  RH  087%=      5-min Rain = 0
KPA1 081533Z 20007KT 04/02 A3039 RMK A01 T00440023  RH  087%=      5-min Rain = 0
KPA1 081534Z 21009KT 05/02 A3039 RMK A01 T00450024  RH  087%=      5-min Rain = 0
KPA1 081535Z 20009KT 05/02 A3039 RMK A01 T00450024  RH  086%=      5-min Rain = 0
KPA1 081536Z 20010KT 05/02 A3039 RMK A01 T00450024  RH  086%=      5-min Rain = 0
KPA1 081537Z 20009KT 05/02 A3039 RMK A01 T00450024  RH  086%=      5-min Rain = 0
KPA1 081538Z 20008KT 05/02 A3039 RMK A01 T00450024  RH  086%=      5-min Rain = 0
KPA1 081539Z 19009KT 05/02 A3039 RMK A01 T00450024  RH  087%=      5-min Rain = 0
KPA1 081540Z 19011KT 05/02 A3039 RMK A01 T00450024  RH  086%=      5-min Rain = 0
KPA1 081541Z 19010KT 05/03 A3038 RMK A01 T00450025  RH  087%=      5-min Rain = 0
KPA1 081542Z 20011KT 05/03 A3038 RMK A01 T00460025  RH  087%=      5-min Rain = 0
KPA1 081543Z 19010KT 05/03 A3038 RMK A01 T00460025  RH  086%=      5-min Rain = 0
KPA1 081544Z 20009KT 05/03 A3038 RMK A01 T00460026  RH  087%=      5-min Rain = 0
KPA1 081545Z 20010KT 05/03 A3038 RMK A01 T00470026  RH  086%=      5-min Rain = 0
KPA1 081546Z 20012KT 05/03 A3038 RMK A01 T00480026  RH  086%=      5-min Rain = 0
KPA1 081547Z 20010KT 05/03 A3038 RMK A01 T00470026  RH  086%=      5-min Rain = 0
KPA1 081548Z 19009KT 05/03 A3038 RMK A01 T00480027  RH  086%=      5-min Rain = 0
KPA1 081549Z 20011KT 05/03 A3038 RMK A01 T00480027  RH  086%=      5-min Rain = 0
KPA1 081550Z 20010KT 05/03 A3038 RMK A01 T00480026  RH  086%=      5-min Rain = 0
KPA1 081551Z 19009KT 05/03 A3038 RMK A01 T00490027  RH  086%=      5-min Rain = 0
KPA1 081552Z 19008KT 05/03 A3038 RMK A01 T00500028  RH  086%=      5-min Rain = 0
KPA1 081553Z 20009KT 05/03 A3038 RMK A01 T00500029  RH  086%=      5-min Rain = 0
KPA1 081554Z 19010KT 05/03 A3038 RMK A01 T00510029  RH  085%=      5-min Rain = 0
KPA1 081555Z 20008KT 05/03 A3038 RMK A01 T00510028  RH  085%=      5-min Rain = 0
KPA1 081556Z 20008KT 05/03 A3038 RMK A01 T00520029  RH  086%=      5-min Rain = 0
KPA1 081557Z 20008KT 05/03 A3038 RMK A01 T00530030  RH  085%=      5-min Rain = 0
KPA1 081558Z 20009KT 05/03 A3039 RMK A01 T00530029  RH  085%=      5-min Rain = 0
KPA1 081559Z 20009KT 05/03 A3039 RMK A01 T00530028  RH  084%=      5-min Rain = 0
KPA1 081600Z 21009KT 05/03 A3039 RMK A01 T00520028  RH  085%=      5-min Rain = 0
KPA1 081601Z 21010KT 05/03 A3038 RMK A01 T00520029  RH  085%=      5-min Rain = 0
KPA1 081602Z 21011KT 05/03 A3038 RMK A01 T00520029  RH  085%=      5-min Rain = 0
KPA1 081603Z 20011KT 05/03 A3038 RMK A01 T00520029  RH  085%=      5-min Rain = 0
KPA1 081604Z 21012KT 05/03 A3038 RMK A01 T00520029  RH  085%=      5-min Rain = 0
KPA1 081605Z 20010KT 05/03 A3038 RMK A01 T00530030  RH  085%=      5-min Rain = 0
KPA1 081606Z 20010KT 05/03 A3038 RMK A01 T00530030  RH  085%=      5-min Rain = 0
KPA1 081607Z 19011KT 05/03 A3038 RMK A01 T00530030  RH  085%=      5-min Rain = 0
KPA1 081608Z 20010KT 05/03 A3038 RMK A01 T00530030  RH  085%=      5-min Rain = 0
KPA1 081609Z 20012KT 05/03 A3038 RMK A01 T00540031  RH  085%=      5-min Rain = 0
KPA1 081610Z 21011KT 05/03 A3038 RMK A01 T00540030  RH  084%=      5-min Rain = 0
KPA1 081611Z 21012KT 05/03 A3038 RMK A01 T00540030  RH  085%=      5-min Rain = 0
KPA1 081612Z 21012KT 05/03 A3038 RMK A01 T00540031  RH  085%=      5-min Rain = 0
KPA1 081613Z 21011KT 06/03 A3038 RMK A01 T00550031  RH  085%=      5-min Rain = 0
KPA1 081614Z 21012KT 06/03 A3038 RMK A01 T00550031  RH  085%=      5-min Rain = 0
KPA1 081615Z 21012KT 06/03 A3038 RMK A01 T00550031  RH  084%=      5-min Rain = 0
KPA1 081616Z 21012KT 06/03 A3038 RMK A01 T00550031  RH  084%=      5-min Rain = 0
KPA1 081617Z 21011KT 06/03 A3038 RMK A01 T00550031  RH  084%=      5-min Rain = 0
KPA1 081618Z 20010KT 06/03 A3038 RMK A01 T00550031  RH  085%=      5-min Rain = 0
KPA1 081619Z 20009KT 06/03 A3038 RMK A01 T00560032  RH  085%=      5-min Rain = 0
KPA1 081620Z 20010KT 06/03 A3037 RMK A01 T00570033  RH  085%=      5-min Rain = 0
KPA1 081621Z 20011KT 06/03 A3037 RMK A01 T00580033  RH  084%=      5-min Rain = 0
KPA1 081622Z 20012KT 06/03 A3037 RMK A01 T00580033  RH  084%=      5-min Rain = 0
KPA1 081623Z 21011KT 06/03 A3037 RMK A01 T00580032  RH  084%=      5-min Rain = 0
KPA1 081624Z 21011KT 06/03 A3037 RMK A01 T00580032  RH  084%=      5-min Rain = 0
KPA1 081625Z 21012KT 06/03 A3037 RMK A01 T00580032  RH  083%=      5-min Rain = 0
KPA1 081626Z 21011KT 06/03 A3037 RMK A01 T00580031  RH  083%=      5-min Rain = 0
KPA1 081627Z 20011KT 06/03 A3037 RMK A01 T00570032  RH  084%=      5-min Rain = 0
KPA1 081628Z 20010KT 06/03 A3037 RMK A01 T00580032  RH  084%=      5-min Rain = 0
KPA1 081629Z 20009KT 06/03 A3037 RMK A01 T00590033  RH  084%=      5-min Rain = 0
KPA1 081630Z 20012KT 06/03 A3037 RMK A01 T00590034  RH  084%=      5-min Rain = 0
KPA1 081631Z 20012KT 06/03 A3037 RMK A01 T00600034  RH  083%=      5-min Rain = 0
KPA1 081632Z 19013KT 06/03 A3037 RMK A01 T00600034  RH  083%=      5-min Rain = 0
KPA1 081633Z 19010KT 06/03 A3037 RMK A01 T00600034  RH  083%=      5-min Rain = 0
KPA1 081634Z 20014KT 06/03 A3037 RMK A01 T00610034  RH  083%=      5-min Rain = 0
KPA1 081635Z 20013KT 06/03 A3037 RMK A01 T00610034  RH  083%=      5-min Rain = 0
KPA1 081636Z 20010KT 06/03 A3037 RMK A01 T00600033  RH  083%=      5-min Rain = 0
KPA1 081637Z 20010KT 06/03 A3037 RMK A01 T00600034  RH  083%=      5-min Rain = 0
KPA1 081638Z 20010KT 06/04 A3037 RMK A01 T00610035  RH  084%=      5-min Rain = 0
KPA1 081639Z 20011KT 06/04 A3037 RMK A01 T00620036  RH  083%=      5-min Rain = 0
KPA1 081640Z 19012KT 06/04 A3037 RMK A01 T00640036  RH  083%=      5-min Rain = 0
KPA1 081641Z 20011KT 06/04 A3037 RMK A01 T00640035  RH  082%=      5-min Rain = 0
KPA1 081642Z 21010KT 06/04 A3037 RMK A01 T00630035  RH  082%=      5-min Rain = 0
KPA1 081643Z 21011KT 06/04 A3037 RMK A01 T00640035  RH  082%=      5-min Rain = 0
KPA1 081644Z 19009KT 06/04 A3037 RMK A01 T00640036  RH  082%=      5-min Rain = 0
KPA1 081645Z 19010KT 07/04 A3037 RMK A01 T00660037  RH  082%=      5-min Rain = 0
KPA1 081646Z 20011KT 07/04 A3037 RMK A01 T00660037  RH  081%=      5-min Rain = 0
KPA1 081647Z 19012KT 07/04 A3037 RMK A01 T00660036  RH  081%=      5-min Rain = 0
KPA1 081648Z 20012KT 07/04 A3037 RMK A01 T00660036  RH  081%=      5-min Rain = 0
KPA1 081649Z 19013KT 07/04 A3037 RMK A01 T00660036  RH  081%=      5-min Rain = 0.01
KPA1 081650Z 19012KT 07/04 A3037 RMK A01 T00650036  RH  081%=      5-min Rain = 0
KPA1 081651Z 20012KT 07/04 A3037 RMK A01 T00650036  RH  082%=      5-min Rain = 0
KPA1 081652Z 20011KT 07/04 A3037 RMK A01 T00650036  RH  082%=      5-min Rain = 0
KPA1 081653Z 21013KT 07/04 A3037 RMK A01 T00650037  RH  082%=      5-min Rain = 0
KPA1 081654Z 20013KT 07/04 A3037 RMK A01 T00650036  RH  082%=      5-min Rain = 0
KPA1 081655Z 20012KT 06/04 A3037 RMK A01 T00640036  RH  082%=      5-min Rain = 0
KPA1 081656Z 20013KT 06/04 A3037 RMK A01 T00640037  RH  083%=      5-min Rain = 0
KPA1 081657Z 20013KT 06/04 A3037 RMK A01 T00640036  RH  082%=      5-min Rain = 0
KPA1 081658Z 20013KT 06/04 A3037 RMK A01 T00640036  RH  082%=      5-min Rain = 0
KPA1 081659Z 20011KT 06/04 A3037 RMK A01 T00630036  RH  083%=      5-min Rain = 0
KPA1 081700Z 20009KT 06/04 A3037 RMK A01 T00630037  RH  083%=      5-min Rain = 0
KPA1 081701Z 20011KT 07/04 A3037 RMK A01 T00660039  RH  083%=      5-min Rain = 0
KPA1 081702Z 20013KT 07/04 A3037 RMK A01 T00660038  RH  082%=      5-min Rain = 0
KPA1 081703Z 20014KT 07/04 A3037 RMK A01 T00650036  RH  082%=      5-min Rain = 0
KPA1 081704Z 20015KT 06/04 A3036 RMK A01 T00640036  RH  083%=      5-min Rain = 0
KPA1 081705Z 20012KT 06/04 A3036 RMK A01 T00630037  RH  083%=      5-min Rain = 0
KPA1 081706Z 20013KT 06/04 A3036 RMK A01 T00640038  RH  084%=      5-min Rain = 0
KPA1 081707Z 21013KT 06/04 A3036 RMK A01 T00640037  RH  083%=      5-min Rain = 0
KPA1 081708Z 20012KT 06/04 A3036 RMK A01 T00640038  RH  083%=      5-min Rain = 0
KPA1 081709Z 20014KT 07/04 A3036 RMK A01 T00650039  RH  083%=      5-min Rain = 0
KPA1 081710Z 20012KT 07/04 A3036 RMK A01 T00660039  RH  083%=      5-min Rain = 0
KPA1 081711Z 20014KT 07/04 A3036 RMK A01 T00670039  RH  082%=      5-min Rain = 0
KPA1 081712Z 20013KT 07/04 A3036 RMK A01 T00670038  RH  082%=      5-min Rain = 0
KPA1 081713Z 21014KT 07/04 A3036 RMK A01 T00670039  RH  082%=      5-min Rain = 0
KPA1 081714Z 21013KT 07/04 A3036 RMK A01 T00670038  RH  082%=      5-min Rain = 0
KPA1 081715Z 20013KT 07/04 A3036 RMK A01 T00670039  RH  082%=      5-min Rain = 0
KPA1 081716Z 20013KT 07/04 A3036 RMK A01 T00670038  RH  082%=      5-min Rain = 0
KPA1 081717Z 21014KT 07/04 A3036 RMK A01 T00670038  RH  082%=      5-min Rain = 0
KPA1 081718Z 21011KT 07/04 A3036 RMK A01 T00660038  RH  082%=      5-min Rain = 0
KPA1 081719Z 21012KT 07/04 A3036 RMK A01 T00670040  RH  083%=      5-min Rain = 0
KPA1 081720Z 21010KT 07/04 A3036 RMK A01 T00670039  RH  082%=      5-min Rain = 0
KPA1 081721Z 19012KT 07/04 A3036 RMK A01 T00690040  RH  082%=      5-min Rain = 0
KPA1 081722Z 20013KT 07/04 A3036 RMK A01 T00690040  RH  082%=      5-min Rain = 0
KPA1 081723Z 20016KT 07/04 A3036 RMK A01 T00680039  RH  081%=      5-min Rain = 0
KPA1 081724Z 20016KT 07/04 A3036 RMK A01 T00670038  RH  082%=      5-min Rain = 0
KPA1 081725Z 20017KT 07/04 A3036 RMK A01 T00660038  RH  082%=      5-min Rain = 0
KPA1 081726Z 20015KT 07/04 A3036 RMK A01 T00660039  RH  083%=      5-min Rain = 0
KPA1 081727Z 21015KT 07/04 A3036 RMK A01 T00660039  RH  083%=      5-min Rain = 0
KPA1 081728Z 20014KT 07/04 A3037 RMK A01 T00660039  RH  083%=      5-min Rain = 0
KPA1 081729Z 21012KT 07/04 A3036 RMK A01 T00650038  RH  083%=      5-min Rain = 0
KPA1 081730Z 21013KT 07/04 A3036 RMK A01 T00660040  RH  083%=      5-min Rain = 0
KPA1 081731Z 21014KT 07/04 A3036 RMK A01 T00670040  RH  083%=      5-min Rain = 0
KPA1 081732Z 21014KT 07/04 A3036 RMK A01 T00670039  RH  083%=      5-min Rain = 0
KPA1 081733Z 21016KT 07/04 A3036 RMK A01 T00660039  RH  083%=      5-min Rain = 0
KPA1 081734Z 21015KT 07/04 A3036 RMK A01 T00650038  RH  083%=      5-min Rain = 0
KPA1 081735Z 21014KT 06/04 A3036 RMK A01 T00640038  RH  083%=      5-min Rain = 0
KPA1 081736Z 21014KT 06/04 A3036 RMK A01 T00640038  RH  083%=      5-min Rain = 0
KPA1 081737Z 21013KT 06/04 A3036 RMK A01 T00640039  RH  084%=      5-min Rain = 0
KPA1 081738Z 21012KT 07/04 A3036 RMK A01 T00650040  RH  084%=      5-min Rain = 0
KPA1 081739Z 21012KT 07/04 A3036 RMK A01 T00660041  RH  084%=      5-min Rain = 0
KPA1 081740Z 21014KT 07/04 A3035 RMK A01 T00670040  RH  083%=      5-min Rain = 0
KPA1 081741Z 21015KT 07/04 A3035 RMK A01 T00660039  RH  083%=      5-min Rain = 0
KPA1 081742Z 21016KT 07/04 A3035 RMK A01 T00660038  RH  083%=      5-min Rain = 0
KPA1 081743Z 21013KT 07/04 A3035 RMK A01 T00650038  RH  083%=      5-min Rain = 0
KPA1 081744Z 21015KT 07/04 A3035 RMK A01 T00650039  RH  083%=      5-min Rain = 0
KPA1 081745Z 20014KT 06/04 A3035 RMK A01 T00640038  RH  084%=      5-min Rain = 0
KPA1 081746Z 21015KT 06/04 A3035 RMK A01 T00640039  RH  084%=      5-min Rain = 0
KPA1 081747Z 20015KT 06/04 A3035 RMK A01 T00630039  RH  084%=      5-min Rain = 0
KPA1 081748Z 20014KT 06/04 A3035 RMK A01 T00630039  RH  084%=      5-min Rain = 0
KPA1 081749Z 21014KT 06/04 A3035 RMK A01 T00630039  RH  084%=      5-min Rain = 0
KPA1 081750Z 21016KT 07/04 A3035 RMK A01 T00650040  RH  084%=      5-min Rain = 0
KPA1 081751Z 21015KT 07/04 A3035 RMK A01 T00650039  RH  084%=      5-min Rain = 0
KPA1 081752Z 20014KT 06/04 A3035 RMK A01 T00640039  RH  084%=      5-min Rain = 0
KPA1 081753Z 20011KT 07/04 A3035 RMK A01 T00650040  RH  084%=      5-min Rain = 0
KPA1 081754Z 21013KT 07/04 A3035 RMK A01 T00660040  RH  084%=      5-min Rain = 0
KPA1 081755Z 21013KT 07/04 A3035 RMK A01 T00670040  RH  083%=      5-min Rain = 0
KPA1 081756Z 20012KT 07/04 A3035 RMK A01 T00670040  RH  083%=      5-min Rain = 0
KPA1 081757Z 20012KT 07/04 A3035 RMK A01 T00670041  RH  083%=      5-min Rain = 0
KPA1 081758Z 21014KT 07/04 A3035 RMK A01 T00680041  RH  083%=      5-min Rain = 0
KPA1 081759Z 20012KT 07/04 A3035 RMK A01 T00660039  RH  083%=      5-min Rain = 0
KPA1 081800Z 21013KT 07/04 A3035 RMK A01 T00660040  RH  083%=      5-min Rain = 0
KPA1 081801Z 21013KT 07/04 A3035 RMK A01 T00660039  RH  083%=      5-min Rain = 0
KPA1 081802Z 21013KT 07/04 A3035 RMK A01 T00660040  RH  083%=      5-min Rain = 0
KPA1 081803Z 22014KT 07/04 A3035 RMK A01 T00670040  RH  083%=      5-min Rain = 0
KPA1 081804Z 23013KT 07/04 A3034 RMK A01 T00660039  RH  083%=      5-min Rain = 0
KPA1 081805Z 22014KT 07/04 A3034 RMK A01 T00650040  RH  084%=      5-min Rain = 0
KPA1 081806Z 22014KT 07/04 A3034 RMK A01 T00660040  RH  084%=      5-min Rain = 0
KPA1 081807Z 21014KT 07/04 A3034 RMK A01 T00660040  RH  083%=      5-min Rain = 0
KPA1 081808Z 21014KT 07/04 A3034 RMK A01 T00660040  RH  083%=      5-min Rain = 0
KPA1 081809Z 22013KT 07/04 A3034 RMK A01 T00660040  RH  083%=      5-min Rain = 0
KPA1 081810Z 22015KT 07/04 A3034 RMK A01 T00670040  RH  083%=      5-min Rain = 0
KPA1 081816Z 22014KT 07/04 A3034 RMK A01 T00670041  RH  083%=      5-min Rain = 0
KPA1 081817Z 22013KT 07/04 A3033 RMK A01 T00670041  RH  083%=      5-min Rain = 0
KPA1 081818Z 21014KT 07/04 A3034 RMK A01 T00670041  RH  084%=      5-min Rain = 0
KPA1 081819Z 21016KT 07/04 A3034 RMK A01 T00680041  RH  083%=      5-min Rain = 0
KPA1 081820Z 21014KT 07/04 A3034 RMK A01 T00660040  RH  083%=      5-min Rain = 0
KPA1 081821Z 21012KT 07/04 A3033 RMK A01 T00650040  RH  084%=      5-min Rain = 0
KPA1 081822Z 21012KT 07/04 A3033 RMK A01 T00650040  RH  084%=      5-min Rain = 0
KPA1 081823Z 21015KT 07/04 A3033 RMK A01 T00660041  RH  084%=      5-min Rain = 0
KPA1 081824Z 20013KT 07/04 A3033 RMK A01 T00670041  RH  084%=      5-min Rain = 0
KPA1 081825Z 20014KT 07/04 A3033 RMK A01 T00670041  RH  084%=      5-min Rain = 0
KPA1 081826Z 20014KT 07/04 A3033 RMK A01 T00680042  RH  083%=      5-min Rain = 0
KPA1 081827Z 21013KT 07/04 A3033 RMK A01 T00690041  RH  083%=      5-min Rain = 0
KPA1 081828Z 21013KT 07/04 A3033 RMK A01 T00690042  RH  083%=      5-min Rain = 0
KPA1 081829Z 20013KT 07/04 A3033 RMK A01 T00690041  RH  082%=      5-min Rain = 0
KPA1 081830Z 20011G16KT 07/04 A3033 RMK A01 T00700042  RH  082%=      5-min Rain = 0
KPA1 081831Z 20013KT 07/04 A3033 RMK A01 T00700041  RH  082%=      5-min Rain = 0
KPA1 081832Z 21011KT 07/04 A3033 RMK A01 T00700042  RH  082%=      5-min Rain = 0
KPA1 081833Z 19012KT 07/04 A3033 RMK A01 T00700042  RH  082%=      5-min Rain = 0
KPA1 081834Z 20013KT 07/04 A3033 RMK A01 T00710042  RH  082%=      5-min Rain = 0
KPA1 081835Z 21013KT 07/04 A3033 RMK A01 T00720042  RH  081%=      5-min Rain = 0
KPA1 081836Z 20014KT 07/04 A3033 RMK A01 T00720042  RH  081%=      5-min Rain = 0
KPA1 081837Z 21014KT 07/04 A3033 RMK A01 T00710041  RH  081%=      5-min Rain = 0
KPA1 081838Z 21014KT 07/04 A3033 RMK A01 T00710042  RH  081%=      5-min Rain = 0
KPA1 081839Z 21012KT 07/04 A3033 RMK A01 T00710041  RH  081%=      5-min Rain = 0
KPA1 081840Z 21011KT 07/04 A3033 RMK A01 T00710042  RH  082%=      5-min Rain = 0
KPA1 081841Z 22014KT 07/05 A3033 RMK A01 T00730045  RH  082%=      5-min Rain = 0
KPA1 081842Z 22014KT 08/04 A3033 RMK A01 T00750043  RH  080%=      5-min Rain = 0
KPA1 081843Z 21012KT 07/04 A3033 RMK A01 T00740042  RH  080%=      5-min Rain = 0
KPA1 081844Z 21013KT 07/04 A3033 RMK A01 T00740043  RH  080%=      5-min Rain = 0
KPA1 081845Z 21011KT 08/04 A3033 RMK A01 T00750043  RH  080%=      5-min Rain = 0
KPA1 081846Z 22011KT 08/04 A3033 RMK A01 T00750042  RH  080%=      5-min Rain = 0
KPA1 081847Z 22011KT 08/04 A3032 RMK A01 T00750043  RH  080%=      5-min Rain = 0
KPA1 081848Z 22013KT 08/04 A3032 RMK A01 T00750043  RH  080%=      5-min Rain = 0
KPA1 081849Z 21013KT 08/04 A3032 RMK A01 T00760043  RH  079%=      5-min Rain = 0
KPA1 081850Z 21014KT 08/04 A3032 RMK A01 T00770043  RH  079%=      5-min Rain = 0
KPA1 081851Z 21012KT 08/04 A3032 RMK A01 T00770042  RH  078%=      5-min Rain = 0
KPA1 081852Z 21011KT 08/04 A3032 RMK A01 T00760042  RH  079%=      5-min Rain = 0
KPA1 081853Z 21012KT 08/04 A3032 RMK A01 T00770043  RH  079%=      5-min Rain = 0
KPA1 081854Z 21012KT 08/04 A3032 RMK A01 T00770044  RH  079%=      5-min Rain = 0
KPA1 081855Z 20009KT 08/04 A3032 RMK A01 T00790044  RH  079%=      5-min Rain = 0
KPA1 081856Z 20009KT 08/05 A3032 RMK A01 T00810046  RH  079%=      5-min Rain = 0
KPA1 081857Z 20011KT 08/05 A3031 RMK A01 T00820045  RH  078%=      5-min Rain = 0
KPA1 081858Z 22011KT 08/04 A3031 RMK A01 T00820044  RH  077%=      5-min Rain = 0
KPA1 081859Z 22014KT 08/04 A3031 RMK A01 T00810043  RH  077%=      5-min Rain = 0
KPA1 081900Z 21013KT 08/05 A3031 RMK A01 T00820045  RH  078%=      5-min Rain = 0
KPA1 081901Z 21011KT 08/04 A3031 RMK A01 T00830044  RH  076%=      5-min Rain = 0
KPA1 081902Z 21010KT 08/04 A3031 RMK A01 T00820043  RH  076%=      5-min Rain = 0
KPA1 081903Z 21011KT 08/04 A3031 RMK A01 T00820043  RH  077%=      5-min Rain = 0
KPA1 081904Z 21011KT 08/04 A3031 RMK A01 T00820044  RH  077%=      5-min Rain = 0
KPA1 081905Z 20013KT 08/04 A3031 RMK A01 T00820044  RH  077%=      5-min Rain = 0
KPA1 081906Z 20011KT 08/04 A3031 RMK A01 T00820044  RH  077%=      5-min Rain = 0
KPA1 081907Z 21011KT 08/04 A3031 RMK A01 T00830044  RH  077%=      5-min Rain = 0
KPA1 081908Z 22012KT 08/04 A3031 RMK A01 T00820044  RH  077%=      5-min Rain = 0
KPA1 081909Z 22010KT 08/04 A3031 RMK A01 T00810044  RH  077%=      5-min Rain = 0
KPA1 081910Z 21012KT 08/04 A3031 RMK A01 T00810043  RH  077%=      5-min Rain = 0
KPA1 081911Z 21013KT 08/05 A3031 RMK A01 T00830046  RH  078%=      5-min Rain = 0
KPA1 081912Z 22015KT 09/05 A3031 RMK A01 T00850045  RH  076%=      5-min Rain = 0
KPA1 081913Z 21012KT 08/04 A3031 RMK A01 T00820042  RH  076%=      5-min Rain = 0
KPA1 081914Z 20010KT 08/04 A303 RMK A01 T00790042  RH  077%=      5-min Rain = 0
KPA1 081915Z 21012KT 08/04 A303 RMK A01 T00800043  RH  078%=      5-min Rain = 0
KPA1 081916Z 21012KT 08/04 A303 RMK A01 T00810044  RH  077%=      5-min Rain = 0
KPA1 081917Z 19012KT 08/05 A303 RMK A01 T00830045  RH  077%=      5-min Rain = 0
KPA1 081918Z 20013KT 09/05 A303 RMK A01 T00860046  RH  076%=      5-min Rain = 0
KPA1 081919Z 20010KT 08/04 A303 RMK A01 T00840043  RH  075%=      5-min Rain = 0
KPA1 081920Z 21010KT 08/04 A303 RMK A01 T00830044  RH  076%=      5-min Rain = 0
KPA1 081921Z 21009KT 08/05 A303 RMK A01 T00840045  RH  077%=      5-min Rain = 0
KPA1 081922Z 22012KT 08/04 A303 RMK A01 T00840044  RH  076%=      5-min Rain = 0
KPA1 081923Z 22012KT 08/04 A303 RMK A01 T00830043  RH  076%=      5-min Rain = 0
KPA1 081924Z 22011KT 09/05 A303 RMK A01 T00850046  RH  077%=      5-min Rain = 0
KPA1 081925Z 21012KT 09/05 A303 RMK A01 T00920051  RH  075%=      5-min Rain = 0
KPA1 081926Z 21011KT 09/05 A303 RMK A01 T00920046  RH  073%=      5-min Rain = 0
KPA1 081927Z 22011KT 09/05 A303 RMK A01 T00920046  RH  073%=      5-min Rain = 0
KPA1 081928Z 21011KT 09/04 A303 RMK A01 T00900044  RH  073%=      5-min Rain = 0
KPA1 081929Z 21012KT 09/04 A303 RMK A01 T00890044  RH  074%=      5-min Rain = 0
KPA1 081930Z 22014G19KT 09/05 A3029 RMK A01 T00890046  RH  074%=      5-min Rain = 0
KPA1 081931Z 21014KT 09/05 A303 RMK A01 T00920048  RH  074%=      5-min Rain = 0
KPA1 081932Z 21012KT 09/04 A303 RMK A01 T00910044  RH  072%=      5-min Rain = 0
KPA1 081933Z 20011KT 09/04 A303 RMK A01 T00880044  RH  074%=      5-min Rain = 0
KPA1 081934Z 21009KT 09/05 A303 RMK A01 T00890045  RH  074%=      5-min Rain = 0
KPA1 081935Z 21012KT 09/05 A3029 RMK A01 T00900045  RH  074%=      5-min Rain = 0
KPA1 081936Z 21011KT 09/04 A3029 RMK A01 T00890044  RH  074%=      5-min Rain = 0
KPA1 081937Z 20012G17KT 09/04 A3029 RMK A01 T00880044  RH  074%=      5-min Rain = 0
KPA1 081938Z 20013KT 09/05 A3029 RMK A01 T00910048  RH  074%=      5-min Rain = 0
KPA1 081939Z 21011KT 09/05 A3029 RMK A01 T00940048  RH  073%=      5-min Rain = 0
KPA1 081940Z 21014KT 09/05 A3029 RMK A01 T00930045  RH  072%=      5-min Rain = 0
KPA1 081941Z 21012KT 09/04 A3029 RMK A01 T00910044  RH  072%=      5-min Rain = 0
KPA1 081942Z 19008KT 09/04 A3029 RMK A01 T00890044  RH  074%=      5-min Rain = 0
KPA1 081943Z 19011KT 09/05 A3029 RMK A01 T00930049  RH  074%=      5-min Rain = 0
KPA1 081944Z 22013KT 10/05 A3029 RMK A01 T00980049  RH  072%=      5-min Rain = 0
KPA1 081945Z 22012KT 10/05 A3029 RMK A01 T00980046  RH  070%=      5-min Rain = 0
KPA1 081946Z 21012KT 10/05 A3029 RMK A01 T00950046  RH  071%=      5-min Rain = 0
KPA1 081947Z 21013KT 10/05 A3029 RMK A01 T00960046  RH  071%=      5-min Rain = 0
KPA1 081948Z 21011KT 10/05 A3029 RMK A01 T00960046  RH  071%=      5-min Rain = 0
KPA1 081949Z 20011KT 10/05 A3029 RMK A01 T00960046  RH  071%=      5-min Rain = 0
KPA1 081950Z 20014KT 10/05 A3029 RMK A01 T00980048  RH  071%=      5-min Rain = 0
KPA1 081951Z 21014KT 10/05 A3029 RMK A01 T00990047  RH  070%=      5-min Rain = 0
KPA1 081952Z 20012KT 10/05 A3028 RMK A01 T00970045  RH  070%=      5-min Rain = 0
KPA1 081953Z 20011KT 10/05 A3028 RMK A01 T00960046  RH  071%=      5-min Rain = 0
KPA1 081954Z 20010KT 10/05 A3028 RMK A01 T00960047  RH  071%=      5-min Rain = 0
KPA1 081955Z 21011KT 10/05 A3028 RMK A01 T00980049  RH  072%=      5-min Rain = 0
KPA1 081956Z 21012KT 10/05 A3028 RMK A01 T00990047  RH  070%=      5-min Rain = 0
KPA1 081957Z 21013KT 10/05 A3028 RMK A01 T00980047  RH  070%=      5-min Rain = 0
KPA1 081958Z 21012KT 10/05 A3028 RMK A01 T00980047  RH  070%=      5-min Rain = 0
KPA1 081959Z 21014KT 10/05 A3028 RMK A01 T00980047  RH  071%=      5-min Rain = 0
KPA1 082000Z 22014KT 10/05 A3028 RMK A01 T00980046  RH  070%=      5-min Rain = 0
KPA1 082001Z 21012KT 10/05 A3028 RMK A01 T00970046  RH  070%=      5-min Rain = 0
KPA1 082002Z 20012KT 10/05 A3028 RMK A01 T00970048  RH  071%=      5-min Rain = 0
KPA1 082003Z 21012KT 10/05 A3028 RMK A01 T01000049  RH  071%=      5-min Rain = 0
KPA1 082004Z 20012KT 10/05 A3028 RMK A01 T01020048  RH  069%=      5-min Rain = 0
KPA1 082005Z 20012KT 10/05 A3028 RMK A01 T01010046  RH  069%=      5-min Rain = 0
KPA1 082006Z 21011KT 10/05 A3028 RMK A01 T01000047  RH  070%=      5-min Rain = 0
KPA1 082007Z 22010KT 10/05 A3028 RMK A01 T01010048  RH  070%=      5-min Rain = 0
KPA1 082008Z 21013KT 10/05 A3028 RMK A01 T01020049  RH  070%=      5-min Rain = 0
KPA1 082009Z 20013KT 10/05 A3028 RMK A01 T01040049  RH  068%=      5-min Rain = 0
KPA1 082010Z 21014KT 10/05 A3028 RMK A01 T01040047  RH  068%=      5-min Rain = 0
KPA1 082011Z 21011KT 10/05 A3028 RMK A01 T01010046  RH  068%=      5-min Rain = 0
KPA1 082012Z 21012KT 10/05 A3028 RMK A01 T01010046  RH  069%=      5-min Rain = 0
KPA1 082013Z 21011KT 10/05 A3028 RMK A01 T01000046  RH  069%=      5-min Rain = 0
KPA1 082014Z 21012KT 10/05 A3028 RMK A01 T01010048  RH  070%=      5-min Rain = 0
KPA1 082015Z 21011KT 10/05 A3028 RMK A01 T01020048  RH  069%=      5-min Rain = 0
KPA1 082016Z 21013KT 10/05 A3028 RMK A01 T01020048  RH  069%=      5-min Rain = 0
KPA1 082017Z 22012KT 10/05 A3028 RMK A01 T01030048  RH  069%=      5-min Rain = 0
KPA1 082018Z 21012KT 10/05 A3028 RMK A01 T01030047  RH  068%=      5-min Rain = 0
KPA1 082019Z 21014KT 10/05 A3027 RMK A01 T01030047  RH  068%=      5-min Rain = 0
KPA1 082020Z 21014KT 10/05 A3027 RMK A01 T01010047  RH  069%=      5-min Rain = 0
KPA1 082021Z 21013KT 10/05 A3027 RMK A01 T01020047  RH  069%=      5-min Rain = 0
KPA1 082022Z 21014KT 10/05 A3027 RMK A01 T01020047  RH  069%=      5-min Rain = 0
KPA1 082023Z 21013KT 10/05 A3027 RMK A01 T01010047  RH  069%=      5-min Rain = 0
KPA1 082024Z 22009KT 10/05 A3027 RMK A01 T01020047  RH  069%=      5-min Rain = 0
KPA1 082025Z 20012KT 10/05 A3027 RMK A01 T01030048  RH  069%=      5-min Rain = 0
KPA1 082026Z 21013KT 10/05 A3027 RMK A01 T01030048  RH  069%=      5-min Rain = 0
KPA1 082027Z 21013KT 10/05 A3027 RMK A01 T01040049  RH  069%=      5-min Rain = 0
KPA1 082028Z 20015KT 10/05 A3027 RMK A01 T01040049  RH  069%=      5-min Rain = 0
KPA1 082029Z 21012KT 10/05 A3027 RMK A01 T01030047  RH  068%=      5-min Rain = 0
KPA1 082030Z 20011KT 10/05 A3027 RMK A01 T01030048  RH  069%=      5-min Rain = 0
KPA1 082031Z 21013KT 11/05 A3027 RMK A01 T01050049  RH  068%=      5-min Rain = 0
KPA1 082032Z 21014KT 11/05 A3027 RMK A01 T01060048  RH  068%=      5-min Rain = 0
KPA1 082033Z 21015KT 10/05 A3027 RMK A01 T01040047  RH  068%=      5-min Rain = 0
KPA1 082034Z 22014KT 10/05 A3027 RMK A01 T01040047  RH  068%=      5-min Rain = 0
KPA1 082035Z 22013KT 10/05 A3027 RMK A01 T01020046  RH  068%=      5-min Rain = 0
KPA1 082036Z 21012KT 10/05 A3027 RMK A01 T01020048  RH  069%=      5-min Rain = 0
KPA1 082037Z 21014KT 11/05 A3027 RMK A01 T01050049  RH  068%=      5-min Rain = 0
KPA1 082038Z 21012KT 11/05 A3027 RMK A01 T01050048  RH  068%=      5-min Rain = 0
KPA1 082039Z 21015KT 10/05 A3027 RMK A01 T01040047  RH  068%=      5-min Rain = 0
KPA1 082040Z 21014KT 10/05 A3027 RMK A01 T01040046  RH  068%=      5-min Rain = 0
KPA1 082041Z 22013KT 10/05 A3027 RMK A01 T01030047  RH  068%=      5-min Rain = 0
KPA1 082042Z 21013KT 10/05 A3027 RMK A01 T01030047  RH  068%=      5-min Rain = 0
KPA1 082043Z 21013KT 10/05 A3027 RMK A01 T01030047  RH  068%=      5-min Rain = 0
KPA1 082044Z 22010KT 10/05 A3027 RMK A01 T01040048  RH  068%=      5-min Rain = 0
KPA1 082045Z 22010KT 11/05 A3027 RMK A01 T01050048  RH  068%=      5-min Rain = 0
KPA1 082046Z 21011KT 11/05 A3027 RMK A01 T01060050  RH  068%=      5-min Rain = 0
KPA1 082047Z 21012KT 11/05 A3027 RMK A01 T01080049  RH  067%=      5-min Rain = 0
KPA1 082048Z 22011KT 11/05 A3027 RMK A01 T01070048  RH  067%=      5-min Rain = 0
KPA1 082049Z 21014KT 11/05 A3027 RMK A01 T01070049  RH  067%=      5-min Rain = 0
KPA1 082050Z 21015KT 11/05 A3027 RMK A01 T01060047  RH  067%=      5-min Rain = 0
KPA1 082051Z 21013KT 11/05 A3027 RMK A01 T01050047  RH  067%=      5-min Rain = 0
KPA1 082052Z 21010KT 11/05 A3027 RMK A01 T01050048  RH  068%=      5-min Rain = 0
KPA1 082053Z 20011KT 11/05 A3027 RMK A01 T01070050  RH  068%=      5-min Rain = 0
KPA1 082054Z 20013KT 11/05 A3026 RMK A01 T01080050  RH  067%=      5-min Rain = 0
KPA1 082055Z 21014KT 11/05 A3026 RMK A01 T01090049  RH  067%=      5-min Rain = 0
KPA1 082056Z 22011KT 11/05 A3026 RMK A01 T01090049  RH  066%=      5-min Rain = 0
KPA1 082057Z 21011KT 11/05 A3026 RMK A01 T01080048  RH  067%=      5-min Rain = 0
KPA1 082058Z 21010KT 11/05 A3026 RMK A01 T01070049  RH  067%=      5-min Rain = 0
KPA1 082059Z 22009KT 11/05 A3026 RMK A01 T01070049  RH  067%=      5-min Rain = 0
KPA1 082100Z 21012KT 11/05 A3026 RMK A01 T01090050  RH  067%=      5-min Rain = 0
KPA1 082101Z 22013KT 11/05 A3026 RMK A01 T01090049  RH  066%=      5-min Rain = 0
KPA1 082102Z 23010KT 11/05 A3026 RMK A01 T01090048  RH  066%=      5-min Rain = 0
KPA1 082103Z 22013KT 11/05 A3026 RMK A01 T01100050  RH  066%=      5-min Rain = 0
KPA1 082104Z 21013KT 11/05 A3026 RMK A01 T01100047  RH  065%=      5-min Rain = 0
KPA1 082105Z 22012KT 11/05 A3026 RMK A01 T01070046  RH  066%=      5-min Rain = 0
KPA1 082106Z 21011KT 11/05 A3026 RMK A01 T01060047  RH  067%=      5-min Rain = 0
KPA1 082107Z 21013KT 11/05 A3026 RMK A01 T01070048  RH  067%=      5-min Rain = 0
KPA1 082108Z 21013KT 11/05 A3026 RMK A01 T01070048  RH  067%=      5-min Rain = 0
KPA1 082109Z 21013KT 11/05 A3026 RMK A01 T01070048  RH  067%=      5-min Rain = 0
KPA1 082110Z 22013KT 11/05 A3026 RMK A01 T01080049  RH  067%=      5-min Rain = 0
KPA1 082111Z 22012KT 11/05 A3026 RMK A01 T01090049  RH  066%=      5-min Rain = 0
KPA1 082112Z 21013KT 11/05 A3026 RMK A01 T01100050  RH  066%=      5-min Rain = 0
KPA1 082113Z 21013KT 11/05 A3026 RMK A01 T01110050  RH  066%=      5-min Rain = 0
KPA1 082114Z 22013KT 11/05 A3026 RMK A01 T01100049  RH  066%=      5-min Rain = 0
KPA1 082115Z 22012KT 11/05 A3026 RMK A01 T01090048  RH  066%=      5-min Rain = 0
KPA1 082116Z 21012KT 11/05 A3026 RMK A01 T01090049  RH  066%=      5-min Rain = 0
KPA1 082117Z 21013KT 11/05 A3026 RMK A01 T01090049  RH  066%=      5-min Rain = 0
KPA1 082118Z 21014KT 11/05 A3026 RMK A01 T01090048  RH  066%=      5-min Rain = 0
KPA1 082119Z 21014KT 11/05 A3026 RMK A01 T01100048  RH  066%=      5-min Rain = 0
KPA1 082120Z 21012KT 11/05 A3026 RMK A01 T01100049  RH  066%=      5-min Rain = 0
KPA1 082121Z 20013G18KT 11/05 A3026 RMK A01 T01100049  RH  066%=      5-min Rain = 0
KPA1 082122Z 20016KT 11/05 A3026 RMK A01 T01110048  RH  065%=      5-min Rain = 0
KPA1 082123Z 21014KT 11/05 A3026 RMK A01 T01110048  RH  065%=      5-min Rain = 0
KPA1 082124Z 22012KT 11/05 A3026 RMK A01 T01100048  RH  065%=      5-min Rain = 0
KPA1 082125Z 22011KT 11/05 A3026 RMK A01 T01100048  RH  066%=      5-min Rain = 0
KPA1 082126Z 21012KT 11/05 A3026 RMK A01 T01100050  RH  066%=      5-min Rain = 0
KPA1 082127Z 21013KT 11/05 A3026 RMK A01 T01100049  RH  066%=      5-min Rain = 0
KPA1 082128Z 22013KT 11/05 A3025 RMK A01 T01110049  RH  065%=      5-min Rain = 0
KPA1 082129Z 22014KT 11/05 A3026 RMK A01 T01110048  RH  065%=      5-min Rain = 0
KPA1 082130Z 21011KT 11/05 A3026 RMK A01 T01120050  RH  066%=      5-min Rain = 0
KPA1 082131Z 22011KT 11/05 A3026 RMK A01 T01140051  RH  065%=      5-min Rain = 0
KPA1 082132Z 21013KT 11/05 A3025 RMK A01 T01140050  RH  065%=      5-min Rain = 0
KPA1 082133Z 21013KT 11/05 A3026 RMK A01 T01140049  RH  065%=      5-min Rain = 0
KPA1 082134Z 22014KT 11/05 A3025 RMK A01 T01130049  RH  065%=      5-min Rain = 0
KPA1 082135Z 22011KT 11/05 A3025 RMK A01 T01130049  RH  065%=      5-min Rain = 0
KPA1 082136Z 21010KT 12/05 A3025 RMK A01 T01150052  RH  065%=      5-min Rain = 0
KPA1 082137Z 21013KT 12/05 A3025 RMK A01 T01160051  RH  064%=      5-min Rain = 0
KPA1 082138Z 21012KT 12/05 A3025 RMK A01 T01150049  RH  064%=      5-min Rain = 0
KPA1 082139Z 20012KT 11/05 A3025 RMK A01 T01140049  RH  064%=      5-min Rain = 0
KPA1 082140Z 20013KT 11/05 A3025 RMK A01 T01130049  RH  065%=      5-min Rain = 0
KPA1 082141Z 20012KT 11/05 A3025 RMK A01 T01130049  RH  065%=      5-min Rain = 0
KPA1 082142Z 21013KT 11/05 A3025 RMK A01 T01130049  RH  065%=      5-min Rain = 0
KPA1 082143Z 20013KT 11/05 A3025 RMK A01 T01130049  RH  065%=      5-min Rain = 0
KPA1 082144Z 21011KT 11/05 A3025 RMK A01 T01130050  RH  065%=      5-min Rain = 0
KPA1 082145Z 20012KT 11/05 A3025 RMK A01 T01140051  RH  065%=      5-min Rain = 0
KPA1 082146Z 21013KT 12/05 A3025 RMK A01 T01150051  RH  065%=      5-min Rain = 0
KPA1 082147Z 22013KT 12/05 A3025 RMK A01 T01160051  RH  064%=      5-min Rain = 0
KPA1 082148Z 22013KT 12/05 A3025 RMK A01 T01150051  RH  064%=      5-min Rain = 0
KPA1 082149Z 21011KT 12/05 A3025 RMK A01 T01150051  RH  065%=      5-min Rain = 0
KPA1 082150Z 21012KT 12/05 A3025 RMK A01 T01150051  RH  065%=      5-min Rain = 0
KPA1 082151Z 21013KT 12/05 A3025 RMK A01 T01150051  RH  065%=      5-min Rain = 0
KPA1 082152Z 21012KT 12/05 A3025 RMK A01 T01160051  RH  064%=      5-min Rain = 0
KPA1 082153Z 21012KT 12/05 A3025 RMK A01 T01150051  RH  064%=      5-min Rain = 0
KPA1 082154Z 21011KT 12/05 A3025 RMK A01 T01150050  RH  064%=      5-min Rain = 0
KPA1 082155Z 21011KT 12/05 A3025 RMK A01 T01150050  RH  065%=      5-min Rain = 0
KPA1 082156Z 21013KT 12/05 A3025 RMK A01 T01150051  RH  065%=      5-min Rain = 0
KPA1 082157Z 21013KT 12/05 A3025 RMK A01 T01150050  RH  064%=      5-min Rain = 0
KPA1 082158Z 21012KT 12/05 A3025 RMK A01 T01150050  RH  064%=      5-min Rain = 0
KPA1 082159Z 20010KT 12/05 A3025 RMK A01 T01150050  RH  065%=      5-min Rain = 0
KPA1 082200Z 20010KT 12/05 A3025 RMK A01 T01150051  RH  065%=      5-min Rain = 0
KPA1 082201Z 21010KT 12/05 A3025 RMK A01 T01150050  RH  064%=      5-min Rain = 0
KPA1 082202Z 21010KT 12/05 A3025 RMK A01 T01150050  RH  064%=      5-min Rain = 0
KPA1 082203Z 21011KT 12/05 A3025 RMK A01 T01170051  RH  064%=      5-min Rain = 0
KPA1 082204Z 21011KT 12/05 A3025 RMK A01 T01170051  RH  064%=      5-min Rain = 0
KPA1 082205Z 21009KT 12/05 A3025 RMK A01 T01170052  RH  064%=      5-min Rain = 0
KPA1 082206Z 21010KT 12/05 A3025 RMK A01 T01150051  RH  065%=      5-min Rain = 0
KPA1 082207Z 22012KT 12/05 A3025 RMK A01 T01150051  RH  065%=      5-min Rain = 0
KPA1 082208Z 21012KT 12/05 A3025 RMK A01 T01150051  RH  065%=      5-min Rain = 0
KPA1 082209Z 21011KT 12/05 A3025 RMK A01 T01160051  RH  064%=      5-min Rain = 0
KPA1 082210Z 21013KT 12/05 A3025 RMK A01 T01170051  RH  064%=      5-min Rain = 0
KPA1 082211Z 22011KT 12/05 A3025 RMK A01 T01170050  RH  064%=      5-min Rain = 0
KPA1 082212Z 21009KT 12/05 A3025 RMK A01 T01160050  RH  064%=      5-min Rain = 0
KPA1 082213Z 22010KT 12/05 A3025 RMK A01 T01160051  RH  064%=      5-min Rain = 0
KPA1 082214Z 21012KT 12/05 A3025 RMK A01 T01170051  RH  064%=      5-min Rain = 0
KPA1 082215Z 21012KT 12/05 A3025 RMK A01 T01170050  RH  064%=      5-min Rain = 0
KPA1 082216Z 22012KT 12/05 A3025 RMK A01 T01170051  RH  064%=      5-min Rain = 0
KPA1 082217Z 21011KT 12/05 A3025 RMK A01 T01160050  RH  064%=      5-min Rain = 0
KPA1 082218Z 21011KT 12/05 A3025 RMK A01 T01160051  RH  064%=      5-min Rain = 0
KPA1 082219Z 21010KT 12/05 A3025 RMK A01 T01160051  RH  064%=      5-min Rain = 0
KPA1 082220Z 21011KT 12/05 A3025 RMK A01 T01160052  RH  065%=      5-min Rain = 0
KPA1 082221Z 21010KT 12/05 A3025 RMK A01 T01160052  RH  065%=      5-min Rain = 0
KPA1 082222Z 21009KT 12/05 A3025 RMK A01 T01160052  RH  065%=      5-min Rain = 0
KPA1 082223Z 22011KT 12/05 A3025 RMK A01 T01150051  RH  064%=      5-min Rain = 0
KPA1 082224Z 21010KT 12/05 A3025 RMK A01 T01160051  RH  064%=      5-min Rain = 0
KPA1 082225Z 21014KT 12/05 A3025 RMK A01 T01160051  RH  064%=      5-min Rain = 0
KPA1 082226Z 21012KT 12/05 A3025 RMK A01 T01160051  RH  064%=      5-min Rain = 0
KPA1 082227Z 21010KT 12/05 A3025 RMK A01 T01160052  RH  064%=      5-min Rain = 0
KPA1 082228Z 21010KT 12/05 A3025 RMK A01 T01170052  RH  065%=      5-min Rain = 0
KPA1 082229Z 21010KT 12/05 A3025 RMK A01 T01170052  RH  065%=      5-min Rain = 0
KPA1 082230Z 21009KT 12/05 A3025 RMK A01 T01160052  RH  065%=      5-min Rain = 0
KPA1 082231Z 21009KT 12/05 A3025 RMK A01 T01150052  RH  065%=      5-min Rain = 0
KPA1 082232Z 21010KT 12/05 A3025 RMK A01 T01150052  RH  065%=      5-min Rain = 0
KPA1 082233Z 21010KT 12/05 A3025 RMK A01 T01150052  RH  065%=      5-min Rain = 0
KPA1 082234Z 21010KT 12/05 A3025 RMK A01 T01150052  RH  065%=      5-min Rain = 0
KPA1 082235Z 20008KT 12/05 A3025 RMK A01 T01150052  RH  065%=      5-min Rain = 0
KPA1 082236Z 21010KT 12/05 A3025 RMK A01 T01160052  RH  065%=      5-min Rain = 0
KPA1 082237Z 21009KT 12/05 A3025 RMK A01 T01160052  RH  065%=      5-min Rain = 0
KPA1 082238Z 20009KT 12/05 A3025 RMK A01 T01150052  RH  065%=      5-min Rain = 0
KPA1 082239Z 20009KT 11/05 A3025 RMK A01 T01140052  RH  066%=      5-min Rain = 0
KPA1 082240Z 20008KT 11/05 A3025 RMK A01 T01140052  RH  066%=      5-min Rain = 0
KPA1 082241Z 21008KT 11/05 A3025 RMK A01 T01140052  RH  066%=      5-min Rain = 0
KPA1 082242Z 20009KT 11/05 A3025 RMK A01 T01140052  RH  066%=      5-min Rain = 0
KPA1 082243Z 20010KT 11/05 A3025 RMK A01 T01140052  RH  066%=      5-min Rain = 0
KPA1 082244Z 21009KT 11/05 A3025 RMK A01 T01140052  RH  066%=      5-min Rain = 0
KPA1 082245Z 21011KT 11/05 A3025 RMK A01 T01130052  RH  066%=      5-min Rain = 0
KPA1 082246Z 21010KT 11/05 A3025 RMK A01 T01130051  RH  066%=      5-min Rain = 0
KPA1 082247Z 21010KT 11/05 A3025 RMK A01 T01120052  RH  066%=      5-min Rain = 0
KPA1 082248Z 21009KT 11/05 A3025 RMK A01 T01120052  RH  066%=      5-min Rain = 0
KPA1 082249Z 20009KT 11/05 A3025 RMK A01 T01120052  RH  067%=      5-min Rain = 0
KPA1 082250Z 20009KT 11/05 A3025 RMK A01 T01110052  RH  067%=      5-min Rain = 0
KPA1 082251Z 20009KT 11/05 A3025 RMK A01 T01120052  RH  067%=      5-min Rain = 0
KPA1 082252Z 20009KT 11/05 A3025 RMK A01 T01120052  RH  067%=      5-min Rain = 0
KPA1 082253Z 20009KT 11/05 A3025 RMK A01 T01120051  RH  066%=      5-min Rain = 0
KPA1 082254Z 21008KT 11/05 A3025 RMK A01 T01120051  RH  066%=      5-min Rain = 0
KPA1 082255Z 21007KT 11/05 A3025 RMK A01 T01120052  RH  067%=      5-min Rain = 0
KPA1 082256Z 21007KT 11/05 A3025 RMK A01 T01110052  RH  067%=      5-min Rain = 0
KPA1 082257Z 21008KT 11/05 A3025 RMK A01 T01110052  RH  067%=      5-min Rain = 0
KPA1 082258Z 21008KT 11/05 A3025 RMK A01 T01100052  RH  068%=      5-min Rain = 0
KPA1 082259Z 21008KT 11/05 A3025 RMK A01 T01090052  RH  068%=      5-min Rain = 0
KPA1 082300Z 21008KT 11/05 A3025 RMK A01 T01090052  RH  068%=      5-min Rain = 0
KPA1 082301Z 21008KT 11/05 A3025 RMK A01 T01090052  RH  068%=      5-min Rain = 0
KPA1 082302Z 20009KT 11/05 A3025 RMK A01 T01090052  RH  068%=      5-min Rain = 0
KPA1 082303Z 20009KT 11/05 A3025 RMK A01 T01090051  RH  068%=      5-min Rain = 0
KPA1 082304Z 21007KT 11/05 A3025 RMK A01 T01090052  RH  068%=      5-min Rain = 0
KPA1 082305Z 21007KT 11/05 A3025 RMK A01 T01080052  RH  068%=      5-min Rain = 0
KPA1 082306Z 21007KT 11/05 A3025 RMK A01 T01070052  RH  068%=      5-min Rain = 0
KPA1 082307Z 21007KT 11/05 A3025 RMK A01 T01060051  RH  069%=      5-min Rain = 0
KPA1 082308Z 21006KT 11/05 A3025 RMK A01 T01060052  RH  069%=      5-min Rain = 0
KPA1 082309Z 21007KT 11/05 A3025 RMK A01 T01060051  RH  069%=      5-min Rain = 0
KPA1 082310Z 21007KT 11/05 A3025 RMK A01 T01060051  RH  069%=      5-min Rain = 0
KPA1 082311Z 20007KT 11/05 A3025 RMK A01 T01050051  RH  069%=      5-min Rain = 0
KPA1 082312Z 20007KT 10/05 A3025 RMK A01 T01040051  RH  070%=      5-min Rain = 0
KPA1 082313Z 20007KT 10/05 A3025 RMK A01 T01040051  RH  070%=      5-min Rain = 0
KPA1 082314Z 20007KT 10/05 A3025 RMK A01 T01030051  RH  070%=      5-min Rain = 0
KPA1 082315Z 21006KT 10/05 A3025 RMK A01 T01030051  RH  070%=      5-min Rain = 0
KPA1 082316Z 21007KT 10/05 A3025 RMK A01 T01020051  RH  070%=      5-min Rain = 0
KPA1 082317Z 20007KT 10/05 A3025 RMK A01 T01020051  RH  071%=      5-min Rain = 0
KPA1 082318Z 20007KT 10/05 A3025 RMK A01 T01020051  RH  071%=      5-min Rain = 0
KPA1 082319Z 21007KT 10/05 A3025 RMK A01 T01010051  RH  071%=      5-min Rain = 0
KPA1 082320Z 21007KT 10/05 A3025 RMK A01 T01000050  RH  071%=      5-min Rain = 0
KPA1 082321Z 20007KT 10/05 A3025 RMK A01 T00990050  RH  072%=      5-min Rain = 0
KPA1 082322Z 20007KT 10/05 A3025 RMK A01 T00980050  RH  072%=      5-min Rain = 0
KPA1 082323Z 20006KT 10/05 A3025 RMK A01 T00970050  RH  072%=      5-min Rain = 0
KPA1 082324Z 20007KT 10/05 A3025 RMK A01 T00960049  RH  072%=      5-min Rain = 0
KPA1 082325Z 20007KT 10/05 A3025 RMK A01 T00950049  RH  073%=      5-min Rain = 0
KPA1 082326Z 21007KT 10/05 A3025 RMK A01 T00950049  RH  073%=      5-min Rain = 0
KPA1 082327Z 20007KT 09/05 A3025 RMK A01 T00940049  RH  073%=      5-min Rain = 0
KPA1 082328Z 20007KT 09/05 A3025 RMK A01 T00930049  RH  074%=      5-min Rain = 0
KPA1 082329Z 20007KT 09/05 A3025 RMK A01 T00920048  RH  074%=      5-min Rain = 0
KPA1 082330Z 20007KT 09/05 A3025 RMK A01 T00920048  RH  074%=      5-min Rain = 0
KPA1 082331Z 20006KT 09/05 A3025 RMK A01 T00910049  RH  075%=      5-min Rain = 0
KPA1 082332Z 20006KT 09/05 A3025 RMK A01 T00900048  RH  075%=      5-min Rain = 0
KPA1 082333Z 20006KT 09/05 A3025 RMK A01 T00890048  RH  075%=      5-min Rain = 0
KPA1 082334Z 20006KT 09/05 A3025 RMK A01 T00880048  RH  076%=      5-min Rain = 0
KPA1 082335Z 20007KT 09/05 A3025 RMK A01 T00870047  RH  076%=      5-min Rain = 0
KPA1 082336Z 20007KT 09/05 A3025 RMK A01 T00860046  RH  076%=      5-min Rain = 0
KPA1 082337Z 20007KT 09/05 A3025 RMK A01 T00850046  RH  076%=      5-min Rain = 0
KPA1 082338Z 20007KT 08/05 A3025 RMK A01 T00840046  RH  077%=      5-min Rain = 0
KPA1 082339Z 19007KT 08/05 A3025 RMK A01 T00830046  RH  077%=      5-min Rain = 0
KPA1 082340Z 19007KT 08/05 A3025 RMK A01 T00820046  RH  078%=      5-min Rain = 0
KPA1 082341Z 19007KT 08/05 A3025 RMK A01 T00820046  RH  078%=      5-min Rain = 0
KPA1 082342Z 19006KT 08/05 A3025 RMK A01 T00810046  RH  079%=      5-min Rain = 0
KPA1 082343Z 19006KT 08/05 A3025 RMK A01 T00810046  RH  079%=      5-min Rain = 0
KPA1 082344Z 19006KT 08/05 A3025 RMK A01 T00800045  RH  079%=      5-min Rain = 0
KPA1 082345Z 19006KT 08/04 A3025 RMK A01 T00780044  RH  079%=      5-min Rain = 0
KPA1 082346Z 19007KT 08/04 A3025 RMK A01 T00770043  RH  079%=      5-min Rain = 0
KPA1 082347Z 19007KT 08/04 A3025 RMK A01 T00750042  RH  079%=      5-min Rain = 0
KPA1 082348Z 19006KT 07/04 A3025 RMK A01 T00740042  RH  080%=      5-min Rain = 0
KPA1 082349Z 19007KT 07/04 A3025 RMK A01 T00730041  RH  080%=      5-min Rain = 0
KPA1 082350Z 19007KT 07/04 A3025 RMK A01 T00720040  RH  081%=      5-min Rain = 0
KPA1 082351Z 19007KT 07/04 A3025 RMK A01 T00700040  RH  081%=      5-min Rain = 0
KPA1 082352Z 19007KT 07/04 A3025 RMK A01 T00690039  RH  081%=      5-min Rain = 0
KPA1 082353Z 19007KT 07/04 A3025 RMK A01 T00680039  RH  082%=      5-min Rain = 0
KPA1 082354Z 19007KT 07/04 A3025 RMK A01 T00670039  RH  082%=      5-min Rain = 0
KPA1 082355Z 19006KT 07/04 A3025 RMK A01 T00660038  RH  082%=      5-min Rain = 0
KPA1 082356Z 18006KT 06/04 A3024 RMK A01 T00640036  RH  082%=      5-min Rain = 0
KPA1 082357Z 18007KT 06/03 A3024 RMK A01 T00620033  RH  082%=      5-min Rain = 0
KPA1 082358Z 18007KT 06/03 A3024 RMK A01 T00590031  RH  082%=      5-min Rain = 0
KPA1 082359Z 18007KT 06/03 A3024 RMK A01 T00550029  RH  083%=      5-min Rain = 0
KPA1 090000Z 18007KT 05/03 A3024 RMK A01 T00530028  RH  084%=      5-min Rain = 0
KPA1 090001Z 18008KT 05/03 A3024 RMK A01 T00500027  RH  085%=      5-min Rain = 0
KPA1 090002Z 18008KT 05/03 A3024 RMK A01 T00480026  RH  085%=      5-min Rain = 0
KPA1 090003Z 19008KT 05/03 A3024 RMK A01 T00460025  RH  086%=      5-min Rain = 0
KPA1 090004Z 19008KT 05/02 A3024 RMK A01 T00450024  RH  086%=      5-min Rain = 0
KPA1 090005Z 19008KT 04/03 A3024 RMK A01 T00440025  RH  087%=      5-min Rain = 0
KPA1 090006Z 19007KT 04/03 A3024 RMK A01 T00440025  RH  088%=      5-min Rain = 0
KPA1 090007Z 19007KT 04/03 A3025 RMK A01 T00440026  RH  088%=      5-min Rain = 0
KPA1 090008Z 19008KT 04/03 A3025 RMK A01 T00440026  RH  088%=      5-min Rain = 0
KPA1 090009Z 19008KT 04/03 A3025 RMK A01 T00430025  RH  088%=      5-min Rain = 0
KPA1 090010Z 18008KT 04/03 A3025 RMK A01 T00420025  RH  089%=      5-min Rain = 0
KPA1 090011Z 18008KT 04/03 A3025 RMK A01 T00420025  RH  089%=      5-min Rain = 0
KPA1 090012Z 18007KT 04/03 A3025 RMK A01 T00420026  RH  089%=      5-min Rain = 0
KPA1 090013Z 18007KT 04/03 A3024 RMK A01 T00410025  RH  089%=      5-min Rain = 0
KPA1 090014Z 18007KT 04/03 A3025 RMK A01 T00410025  RH  090%=      5-min Rain = 0
KPA1 090015Z 18007KT 04/03 A3025 RMK A01 T00410025  RH  090%=      5-min Rain = 0
KPA1 090016Z 18007KT 04/03 A3025 RMK A01 T00400026  RH  090%=      5-min Rain = 0
KPA1 090017Z 18007KT 04/03 A3025 RMK A01 T00400026  RH  091%=      5-min Rain = 0
KPA1 090018Z 18006KT 04/03 A3025 RMK A01 T00400027  RH  091%=      5-min Rain = 0
KPA1 090019Z 18006KT 04/03 A3025 RMK A01 T00400026  RH  091%=      5-min Rain = 0
KPA1 090020Z 18007KT 04/03 A3025 RMK A01 T00400026  RH  091%=      5-min Rain = 0
KPA1 090021Z 19007KT 04/03 A3025 RMK A01 T00390026  RH  091%=      5-min Rain = 0
KPA1 090022Z 19007KT 04/03 A3025 RMK A01 T00400028  RH  092%=      5-min Rain = 0
KPA1 090023Z 19007KT 04/03 A3025 RMK A01 T00410030  RH  092%=      5-min Rain = 0
KPA1 090024Z 19006KT 04/03 A3025 RMK A01 T00420030  RH  092%=      5-min Rain = 0
KPA1 090025Z 19005KT 04/03 A3025 RMK A01 T00420029  RH  091%=      5-min Rain = 0
KPA1 090026Z 19005KT 04/03 A3025 RMK A01 T00420029  RH  091%=      5-min Rain = 0
KPA1 090027Z 19005KT 04/03 A3025 RMK A01 T00420029  RH  091%=      5-min Rain = 0
KPA1 090028Z 19004KT 04/03 A3025 RMK A01 T00420030  RH  092%=      5-min Rain = 0
KPA1 090029Z 18004KT 04/03 A3025 RMK A01 T00420029  RH  091%=      5-min Rain = 0
KPA1 090030Z 18004KT 04/03 A3025 RMK A01 T00410027  RH  091%=      5-min Rain = 0
KPA1 090031Z 18005KT 04/03 A3025 RMK A01 T00390025  RH  090%=      5-min Rain = 0
KPA1 090032Z 18005KT 04/02 A3025 RMK A01 T00380024  RH  090%=      5-min Rain = 0
KPA1 090033Z 19006KT 04/02 A3025 RMK A01 T00370023  RH  091%=      5-min Rain = 0
KPA1 090034Z 19006KT 04/02 A3025 RMK A01 T00360022  RH  091%=      5-min Rain = 0
KPA1 090035Z 19006KT 04/02 A3025 RMK A01 T00350022  RH  091%=      5-min Rain = 0
KPA1 090036Z 19005KT 03/02 A3025 RMK A01 T00340022  RH  092%=      5-min Rain = 0
KPA1 090037Z 19005KT 03/02 A3025 RMK A01 T00330021  RH  092%=      5-min Rain = 0
KPA1 090038Z 19005KT 03/02 A3025 RMK A01 T00330021  RH  092%=      5-min Rain = 0
KPA1 090039Z 19005KT 03/02 A3026 RMK A01 T00320021  RH  092%=      5-min Rain = 0
KPA1 090040Z 19005KT 03/02 A3026 RMK A01 T00320021  RH  092%=      5-min Rain = 0
KPA1 090041Z 19005KT 03/02 A3026 RMK A01 T00310020  RH  093%=      5-min Rain = 0
KPA1 090042Z 19005KT 03/02 A3026 RMK A01 T00310020  RH  093%=      5-min Rain = 0
KPA1 090043Z 19005KT 03/02 A3026 RMK A01 T00310020  RH  093%=      5-min Rain = 0
KPA1 090044Z 19005KT 03/02 A3026 RMK A01 T00300020  RH  093%=      5-min Rain = 0
KPA1 090045Z 19005KT 03/02 A3026 RMK A01 T00300020  RH  093%=      5-min Rain = 0
KPA1 090046Z 19005KT 03/02 A3026 RMK A01 T00290020  RH  094%=      5-min Rain = 0
KPA1 090047Z 19005KT 03/02 A3026 RMK A01 T00290020  RH  094%=      5-min Rain = 0
KPA1 090048Z 19005KT 03/02 A3026 RMK A01 T00290020  RH  094%=      5-min Rain = 0
KPA1 090049Z 19005KT 03/02 A3026 RMK A01 T00290020  RH  094%=      5-min Rain = 0
KPA1 090050Z 19005KT 03/02 A3026 RMK A01 T00280019  RH  094%=      5-min Rain = 0
KPA1 090051Z 19005KT 03/02 A3026 RMK A01 T00280019  RH  094%=      5-min Rain = 0
KPA1 090052Z 19004KT 03/02 A3026 RMK A01 T00280020  RH  094%=      5-min Rain = 0
KPA1 090053Z 19004KT 03/02 A3026 RMK A01 T00280020  RH  094%=      5-min Rain = 0
KPA1 090054Z 18004KT 03/02 A3026 RMK A01 T00270019  RH  094%=      5-min Rain = 0
KPA1 090055Z 19004KT 03/02 A3026 RMK A01 T00280019  RH  094%=      5-min Rain = 0
KPA1 090056Z 19004KT 03/02 A3026 RMK A01 T00270019  RH  095%=      5-min Rain = 0
KPA1 090057Z 19004KT 03/02 A3026 RMK A01 T00270019  RH  095%=      5-min Rain = 0
KPA1 090058Z 20004KT 03/02 A3026 RMK A01 T00270020  RH  095%=      5-min Rain = 0
KPA1 090059Z 20004KT 03/02 A3026 RMK A01 T00270019  RH  095%=      5-min Rain = 0
KPA1 090100Z 20004KT 03/02 A3026 RMK A01 T00270020  RH  095%=      5-min Rain = 0
KPA1 090101Z 20004KT 03/02 A3026 RMK A01 T00270020  RH  095%=      5-min Rain = 0
KPA1 090102Z 20004KT 03/02 A3026 RMK A01 T00270021  RH  096%=      5-min Rain = 0
KPA1 090103Z 20004KT 03/02 A3026 RMK A01 T00270021  RH  096%=      5-min Rain = 0
KPA1 090104Z 20004KT 03/02 A3026 RMK A01 T00280023  RH  096%=      5-min Rain = 0
KPA1 090105Z 20004KT 03/02 A3026 RMK A01 T00300024  RH  097%=      5-min Rain = 0
KPA1 090106Z 20004KT 03/03 A3026 RMK A01 T00300025  RH  097%=      5-min Rain = 0
KPA1 090107Z 20004KT 03/03 A3026 RMK A01 T00310026  RH  097%=      5-min Rain = 0
KPA1 090108Z 20004KT 03/03 A3026 RMK A01 T00310026  RH  097%=      5-min Rain = 0
KPA1 090109Z 20004KT 03/03 A3026 RMK A01 T00310026  RH  097%=      5-min Rain = 0
KPA1 090110Z 20004KT 03/03 A3026 RMK A01 T00310026  RH  097%=      5-min Rain = 0
KPA1 090111Z 20004KT 03/03 A3026 RMK A01 T00310026  RH  097%=      5-min Rain = 0
KPA1 090112Z 20003KT 03/03 A3026 RMK A01 T00310026  RH  096%=      5-min Rain = 0
KPA1 090113Z 19003KT 03/03 A3026 RMK A01 T00310025  RH  096%=      5-min Rain = 0
KPA1 090114Z 20004KT 03/03 A3026 RMK A01 T00300025  RH  096%=      5-min Rain = 0
KPA1 090115Z 19004KT 03/02 A3026 RMK A01 T00300024  RH  096%=      5-min Rain = 0
KPA1 090116Z 20004KT 03/02 A3026 RMK A01 T00300024  RH  096%=      5-min Rain = 0
KPA1 090117Z 20004KT 03/02 A3026 RMK A01 T00290023  RH  096%=      5-min Rain = 0
KPA1 090118Z 20004KT 03/02 A3026 RMK A01 T00280022  RH  096%=      5-min Rain = 0
KPA1 090119Z 20004KT 03/02 A3026 RMK A01 T00280023  RH  096%=      5-min Rain = 0
KPA1 090120Z 20004KT 03/02 A3026 RMK A01 T00280022  RH  096%=      5-min Rain = 0
KPA1 090121Z 20004KT 03/02 A3026 RMK A01 T00260020  RH  096%=      5-min Rain = 0
KPA1 090122Z 20004KT 02/02 A3026 RMK A01 T00240018  RH  095%=      5-min Rain = 0
KPA1 090123Z 20005KT 02/02 A3026 RMK A01 T00240019  RH  096%=      5-min Rain = 0
KPA1 090124Z 20004KT 03/02 A3026 RMK A01 T00250020  RH  097%=      5-min Rain = 0
KPA1 090125Z 20005KT 03/02 A3026 RMK A01 T00250021  RH  097%=      5-min Rain = 0
KPA1 090126Z 20004KT 03/02 A3026 RMK A01 T00260022  RH  097%=      5-min Rain = 0
KPA1 090127Z 20005KT 03/02 A3026 RMK A01 T00270023  RH  097%=      5-min Rain = 0
KPA1 090128Z 20006KT 03/02 A3026 RMK A01 T00280024  RH  097%=      5-min Rain = 0
KPA1 090129Z 20006KT 03/03 A3026 RMK A01 T00280025  RH  098%=      5-min Rain = 0
KPA1 090130Z 20006KT 03/02 A3026 RMK A01 T00280024  RH  097%=      5-min Rain = 0
KPA1 090131Z 20005KT 03/02 A3026 RMK A01 T00280023  RH  097%=      5-min Rain = 0
KPA1 090132Z 20006KT 03/02 A3027 RMK A01 T00270022  RH  096%=      5-min Rain = 0
KPA1 090133Z 19005KT 03/02 A3027 RMK A01 T00250019  RH  096%=      5-min Rain = 0
KPA1 090134Z 19005KT 02/02 A3027 RMK A01 T00230015  RH  095%=      5-min Rain = 0
KPA1 090135Z 19005KT 02/01 A3027 RMK A01 T00190011  RH  094%=      5-min Rain = 0
KPA1 090136Z 19005KT 02/01 A3027 RMK A01 T00170008  RH  094%=      5-min Rain = 0
KPA1 090137Z 19004KT 02/01 A3027 RMK A01 T00160008  RH  095%=      5-min Rain = 0
KPA1 090138Z 19005KT 02/01 A3027 RMK A01 T00150008  RH  095%=      5-min Rain = 0
KPA1 090139Z 19005KT 01/01 A3027 RMK A01 T00140008  RH  095%=      5-min Rain = 0
KPA1 090140Z 19005KT 01/01 A3027 RMK A01 T00130007  RH  096%=      5-min Rain = 0
KPA1 090141Z 19005KT 01/01 A3027 RMK A01 T00120006  RH  096%=      5-min Rain = 0
KPA1 090142Z 19005KT 01/00 A3027 RMK A01 T00110004  RH  096%=      5-min Rain = 0
KPA1 090143Z 19005KT 01/00 A3027 RMK A01 T00100004  RH  096%=      5-min Rain = 0
KPA1 090144Z 19005KT 01/00 A3027 RMK A01 T00090004  RH  096%=      5-min Rain = 0
KPA1 090145Z 20005KT 01/00 A3027 RMK A01 T00090004  RH  096%=      5-min Rain = 0
KPA1 090146Z 20005KT 01/00 A3027 RMK A01 T00080004  RH  097%=      5-min Rain = 0
KPA1 090147Z 20005KT 01/00 A3027 RMK A01 T00090004  RH  097%=      5-min Rain = 0
KPA1 090148Z 20005KT 01/01 A3027 RMK A01 T00090006  RH  097%=      5-min Rain = 0
KPA1 090149Z 20005KT 01/01 A3027 RMK A01 T00100006  RH  098%=      5-min Rain = 0
KPA1 090150Z 20005KT 01/01 A3027 RMK A01 T00100007  RH  098%=      5-min Rain = 0
KPA1 090151Z 20005KT 01/01 A3027 RMK A01 T00100007  RH  098%=      5-min Rain = 0
KPA1 090152Z 20005KT 01/01 A3027 RMK A01 T00100007  RH  098%=      5-min Rain = 0
KPA1 090153Z 20005KT 01/01 A3027 RMK A01 T00120010  RH  098%=      5-min Rain = 0
KPA1 090154Z 20005KT 01/01 A3027 RMK A01 T00140012  RH  099%=      5-min Rain = 0
KPA1 090155Z 20005KT 01/01 A3027 RMK A01 T00140012  RH  099%=      5-min Rain = 0
KPA1 090156Z 21005KT 01/01 A3027 RMK A01 T00140012  RH  099%=      5-min Rain = 0
KPA1 090157Z 21005KT 02/01 A3027 RMK A01 T00150014  RH  099%=      5-min Rain = 0
KPA1 090158Z 21005KT 02/02 A3027 RMK A01 T00160015  RH  099%=      5-min Rain = 0
KPA1 090159Z 21005KT 02/02 A3027 RMK A01 T00170016  RH  099%=      5-min Rain = 0
KPA1 090200Z 21005KT 02/02 A3027 RMK A01 T00180017  RH  099%=      5-min Rain = 0
KPA1 090201Z 21005KT 02/02 A3027 RMK A01 T00180016  RH  099%=      5-min Rain = 0
KPA1 090202Z 21005KT 02/02 A3027 RMK A01 T00170016  RH  099%=      5-min Rain = 0
KPA1 090203Z 21005KT 02/02 A3027 RMK A01 T00170015  RH  099%=      5-min Rain = 0
KPA1 090204Z 21005KT 02/02 A3027 RMK A01 T00170015  RH  099%=      5-min Rain = 0
KPA1 090205Z 21005KT 02/02 A3027 RMK A01 T00170016  RH  099%=      5-min Rain = 0
KPA1 090206Z 21005KT 02/02 A3027 RMK A01 T00180016  RH  099%=      5-min Rain = 0
KPA1 090207Z 22005KT 02/02 A3027 RMK A01 T00180017  RH  099%=      5-min Rain = 0
KPA1 090208Z 22005KT 02/02 A3027 RMK A01 T00190018  RH  099%=      5-min Rain = 0
KPA1 090209Z 22005KT 02/02 A3027 RMK A01 T00200019  RH  099%=      5-min Rain = 0
KPA1 090210Z 22004KT 02/02 A3027 RMK A01 T00210020  RH  099%=      5-min Rain = 0
KPA1 090211Z 22005KT 02/02 A3027 RMK A01 T00210020  RH  099%=      5-min Rain = 0
KPA1 090212Z 22005KT 02/02 A3027 RMK A01 T00210020  RH  099%=      5-min Rain = 0
KPA1 090213Z 22005KT 02/02 A3027 RMK A01 T00210020  RH  099%=      5-min Rain = 0
KPA1 090214Z 22004KT 02/02 A3027 RMK A01 T00210020  RH  099%=      5-min Rain = 0
KPA1 090215Z 22004KT 02/02 A3027 RMK A01 T00220021  RH  099%=      5-min Rain = 0
KPA1 090216Z 22005KT 02/02 A3027 RMK A01 T00220021  RH  099%=      5-min Rain = 0
KPA1 090217Z 23004KT 02/02 A3027 RMK A01 T00220021  RH  099%=      5-min Rain = 0
KPA1 090218Z 23005KT 02/02 A3027 RMK A01 T00220021  RH  099%=      5-min Rain = 0
KPA1 090219Z 22006KT 02/02 A3027 RMK A01 T00220020  RH  099%=      5-min Rain = 0
KPA1 090220Z 23005KT 02/02 A3027 RMK A01 T00210020  RH  099%=      5-min Rain = 0
KPA1 090221Z 23004KT 02/02 A3027 RMK A01 T00210019  RH  099%=      5-min Rain = 0
KPA1 090222Z 23005KT 02/02 A3027 RMK A01 T00200019  RH  099%=      5-min Rain = 0
KPA1 090223Z 23004KT 02/02 A3027 RMK A01 T00210019  RH  099%=      5-min Rain = 0
KPA1 090224Z 23004KT 02/02 A3027 RMK A01 T00210020  RH  099%=      5-min Rain = 0
KPA1 090225Z 23004KT 02/02 A3027 RMK A01 T00210020  RH  099%=      5-min Rain = 0
KPA1 090226Z 23004KT 02/02 A3028 RMK A01 T00230022  RH  099%=      5-min Rain = 0
KPA1 090227Z 23004KT 02/02 A3028 RMK A01 T00230022  RH  099%=      5-min Rain = 0
KPA1 090228Z 23004KT 02/02 A3028 RMK A01 T00240023  RH  099%=      5-min Rain = 0
KPA1 090229Z 23004KT 02/02 A3028 RMK A01 T00230022  RH  099%=      5-min Rain = 0
KPA1 090230Z 23005KT 02/02 A3028 RMK A01 T00230022  RH  099%=      5-min Rain = 0
KPA1 090231Z 23004KT 02/02 A3028 RMK A01 T00230022  RH  099%=      5-min Rain = 0
KPA1 090232Z 23004KT 02/02 A3028 RMK A01 T00230022  RH  099%=      5-min Rain = 0
KPA1 090233Z 23004KT 02/02 A3028 RMK A01 T00240022  RH  099%=      5-min Rain = 0
KPA1 090234Z 23004KT 02/02 A3028 RMK A01 T00230022  RH  099%=      5-min Rain = 0
KPA1 090235Z 23004KT 02/02 A3028 RMK A01 T00230022  RH  099%=      5-min Rain = 0
KPA1 090236Z 23003KT 02/02 A3028 RMK A01 T00230022  RH  099%=      5-min Rain = 0
KPA1 090237Z 23003KT 02/02 A3027 RMK A01 T00230021  RH  099%=      5-min Rain = 0
KPA1 090238Z 23003KT 02/02 A3027 RMK A01 T00230021  RH  099%=      5-min Rain = 0
KPA1 090239Z 22003KT 02/02 A3027 RMK A01 T00220020  RH  099%=      5-min Rain = 0
KPA1 090240Z 22003KT 02/02 A3027 RMK A01 T00220020  RH  099%=      5-min Rain = 0
KPA1 090241Z 22003KT 02/02 A3027 RMK A01 T00210019  RH  099%=      5-min Rain = 0
KPA1 090242Z 22002KT 02/02 A3027 RMK A01 T00210019  RH  099%=      5-min Rain = 0
KPA1 090243Z 21002KT 02/02 A3027 RMK A01 T00200018  RH  099%=      5-min Rain = 0
KPA1 090244Z 21002KT 02/02 A3027 RMK A01 T00200017  RH  099%=      5-min Rain = 0
KPA1 090245Z 20003KT 02/02 A3027 RMK A01 T00190017  RH  099%=      5-min Rain = 0
KPA1 090246Z 20003KT 02/02 A3027 RMK A01 T00200018  RH  099%=      5-min Rain = 0
KPA1 090247Z 21003KT 02/02 A3027 RMK A01 T00200019  RH  099%=      5-min Rain = 0
KPA1 090248Z 21003KT 02/02 A3027 RMK A01 T00210020  RH  099%=      5-min Rain = 0
KPA1 090249Z 21003KT 02/02 A3027 RMK A01 T00220021  RH  099%=      5-min Rain = 0
KPA1 090250Z 21004KT 02/02 A3027 RMK A01 T00220021  RH  099%=      5-min Rain = 0
KPA1 090251Z 22004KT 02/02 A3027 RMK A01 T00220021  RH  099%=      5-min Rain = 0
KPA1 090252Z 21004KT 02/02 A3027 RMK A01 T00210019  RH  099%=      5-min Rain = 0
KPA1 090253Z 22004KT 02/02 A3027 RMK A01 T00190018  RH  099%=      5-min Rain = 0
KPA1 090254Z 22004KT 02/02 A3027 RMK A01 T00180016  RH  099%=      5-min Rain = 0
KPA1 090255Z 22004KT 02/02 A3027 RMK A01 T00170016  RH  099%=      5-min Rain = 0
KPA1 090256Z 22004KT 02/02 A3027 RMK A01 T00190018  RH  099%=      5-min Rain = 0
KPA1 090257Z 22004KT 02/02 A3027 RMK A01 T00200019  RH  100%=      5-min Rain = 0
KPA1 090258Z 22004KT 02/02 A3027 RMK A01 T00200019  RH  100%=      5-min Rain = 0
KPA1 090259Z 22004KT 02/02 A3027 RMK A01 T00210020  RH  100%=      5-min Rain = 0
KPA1 090300Z 21004KT 02/02 A3027 RMK A01 T00210021  RH  100%=      5-min Rain = 0
KPA1 090301Z 21004KT 02/02 A3027 RMK A01 T00220022  RH  100%=      5-min Rain = 0
KPA1 090302Z 21004KT 02/02 A3027 RMK A01 T00220022  RH  100%=      5-min Rain = 0
KPA1 090303Z 21004KT 02/02 A3027 RMK A01 T00230022  RH  100%=      5-min Rain = 0
KPA1 090304Z 21004KT 02/02 A3027 RMK A01 T00230023  RH  100%=      5-min Rain = 0
KPA1 090305Z 21005KT 02/02 A3027 RMK A01 T00230023  RH  100%=      5-min Rain = 0
KPA1 090306Z 21005KT 02/02 A3027 RMK A01 T00230022  RH  100%=      5-min Rain = 0
KPA1 090307Z 21005KT 02/02 A3027 RMK A01 T00230023  RH  100%=      5-min Rain = 0
KPA1 090308Z 21006KT 02/02 A3027 RMK A01 T00240023  RH  100%=      5-min Rain = 0
KPA1 090309Z 21006KT 02/02 A3027 RMK A01 T00240023  RH  100%=      5-min Rain = 0
KPA1 090310Z 21006KT 02/02 A3027 RMK A01 T00230022  RH  100%=      5-min Rain = 0
KPA1 090311Z 21006KT 02/02 A3027 RMK A01 T00230022  RH  100%=      5-min Rain = 0
KPA1 090312Z 21005KT 02/02 A3027 RMK A01 T00220021  RH  100%=      5-min Rain = 0
KPA1 090313Z 21005KT 02/02 A3027 RMK A01 T00220021  RH  099%=      5-min Rain = 0
KPA1 090314Z 21006KT 02/02 A3027 RMK A01 T00210020  RH  099%=      5-min Rain = 0
KPA1 090315Z 21006KT 02/02 A3027 RMK A01 T00210020  RH  099%=      5-min Rain = 0
KPA1 090316Z 21005KT 02/02 A3027 RMK A01 T00200020  RH  099%=      5-min Rain = 0
KPA1 090317Z 21005KT 02/02 A3027 RMK A01 T00200019  RH  099%=      5-min Rain = 0
KPA1 090318Z 21005KT 02/02 A3027 RMK A01 T00200019  RH  099%=      5-min Rain = 0
KPA1 090319Z 21006KT 02/02 A3027 RMK A01 T00190018  RH  099%=      5-min Rain = 0
KPA1 090320Z 21006KT 02/02 A3027 RMK A01 T00190019  RH  099%=      5-min Rain = 0
KPA1 090321Z 21006KT 02/02 A3027 RMK A01 T00190019  RH  099%=      5-min Rain = 0
KPA1 090322Z 21007KT 02/02 A3027 RMK A01 T00200020  RH  100%=      5-min Rain = 0
KPA1 090323Z 21007KT 02/02 A3027 RMK A01 T00210020  RH  100%=      5-min Rain = 0
KPA1 090324Z 22007KT 02/02 A3027 RMK A01 T00220021  RH  100%=      5-min Rain = 0
KPA1 090325Z 22007KT 02/02 A3027 RMK A01 T00220022  RH  100%=      5-min Rain = 0
KPA1 090326Z 21006KT 02/02 A3027 RMK A01 T00230023  RH  100%=      5-min Rain = 0
KPA1 090327Z 22006KT 02/02 A3027 RMK A01 T00240023  RH  100%=      5-min Rain = 0
KPA1 090328Z 22007KT 02/02 A3027 RMK A01 T00240024  RH  100%=      5-min Rain = 0
KPA1 090329Z 22007KT 02/02 A3027 RMK A01 T00240024  RH  100%=      5-min Rain = 0
KPA1 090330Z 22006KT 02/02 A3027 RMK A01 T00240024  RH  100%=      5-min Rain = 0
KPA1 090331Z 21007KT 03/03 A3027 RMK A01 T00250025  RH  100%=      5-min Rain = 0
KPA1 090332Z 22007KT 03/03 A3027 RMK A01 T00250025  RH  100%=      5-min Rain = 0
KPA1 090333Z 21007KT 03/03 A3027 RMK A01 T00250025  RH  100%=      5-min Rain = 0
KPA1 090334Z 22007KT 03/03 A3027 RMK A01 T00260025  RH  100%=      5-min Rain = 0
KPA1 090335Z 22007KT 03/03 A3027 RMK A01 T00260026  RH  100%=      5-min Rain = 0
KPA1 090336Z 21007KT 03/03 A3027 RMK A01 T00270026  RH  100%=      5-min Rain = 0
KPA1 090337Z 21006KT 03/03 A3027 RMK A01 T00270026  RH  100%=      5-min Rain = 0
KPA1 090338Z 21007KT 03/03 A3027 RMK A01 T00270026  RH  100%=      5-min Rain = 0
KPA1 090339Z 21008KT 03/03 A3027 RMK A01 T00270026  RH  100%=      5-min Rain = 0
KPA1 090340Z 21008KT 03/03 A3027 RMK A01 T00280027  RH  100%=      5-min Rain = 0
KPA1 090341Z 21007KT 03/03 A3027 RMK A01 T00290028  RH  100%=      5-min Rain = 0
KPA1 090342Z 21007KT 03/03 A3027 RMK A01 T00290029  RH  100%=      5-min Rain = 0
KPA1 090343Z 21007KT 03/03 A3027 RMK A01 T00300029  RH  100%=      5-min Rain = 0
KPA1 090344Z 21007KT 03/03 A3027 RMK A01 T00300030  RH  100%=      5-min Rain = 0
KPA1 090345Z 21007KT 03/03 A3028 RMK A01 T00300030  RH  100%=      5-min Rain = 0
KPA1 090346Z 21007KT 03/03 A3028 RMK A01 T00310030  RH  100%=      5-min Rain = 0
KPA1 090347Z 21007KT 03/03 A3028 RMK A01 T00310030  RH  099%=      5-min Rain = 0
KPA1 090348Z 22006KT 03/03 A3028 RMK A01 T00310030  RH  099%=      5-min Rain = 0
KPA1 090349Z 22006KT 03/03 A3028 RMK A01 T00310030  RH  099%=      5-min Rain = 0
KPA1 090350Z 22005KT 03/03 A3028 RMK A01 T00310029  RH  099%=      5-min Rain = 0
KPA1 090351Z 22006KT 03/03 A3028 RMK A01 T00300029  RH  099%=      5-min Rain = 0
KPA1 090352Z 22006KT 03/03 A3028 RMK A01 T00300028  RH  099%=      5-min Rain = 0
KPA1 090353Z 22006KT 03/03 A3028 RMK A01 T00300029  RH  099%=      5-min Rain = 0
KPA1 090354Z 22006KT 03/03 A3028 RMK A01 T00300028  RH  099%=      5-min Rain = 0
KPA1 090355Z 22007KT 03/03 A3028 RMK A01 T00300028  RH  099%=      5-min Rain = 0
KPA1 090356Z 22006KT 03/03 A3028 RMK A01 T00290028  RH  099%=      5-min Rain = 0
KPA1 090357Z 22006KT 03/03 A3028 RMK A01 T00300028  RH  099%=      5-min Rain = 0
KPA1 090358Z 22006KT 03/03 A3028 RMK A01 T00290028  RH  099%=      5-min Rain = 0
KPA1 090359Z 22005KT 03/03 A3028 RMK A01 T00300028  RH  099%=      5-min Rain = 0
KPA1 090400Z 22005KT 03/03 A3028 RMK A01 T00290027  RH  099%=      5-min Rain = 0
KPA1 090401Z 22005KT 03/03 A3028 RMK A01 T00290027  RH  099%=      5-min Rain = 0
KPA1 090402Z 22005KT 03/03 A3028 RMK A01 T00280026  RH  098%=      5-min Rain = 0
KPA1 090403Z 22005KT 03/03 A3028 RMK A01 T00280025  RH  098%=      5-min Rain = 0
KPA1 090404Z 22005KT 03/02 A3028 RMK A01 T00270024  RH  098%=      5-min Rain = 0
KPA1 090405Z 21006KT 03/02 A3028 RMK A01 T00260023  RH  098%=      5-min Rain = 0
KPA1 090406Z 22006KT 03/02 A3028 RMK A01 T00260023  RH  098%=      5-min Rain = 0
KPA1 090407Z 22005KT 03/02 A3028 RMK A01 T00260023  RH  098%=      5-min Rain = 0
KPA1 090408Z 22005KT 03/02 A3028 RMK A01 T00260024  RH  099%=      5-min Rain = 0
KPA1 090409Z 21006KT 03/02 A3028 RMK A01 T00260024  RH  099%=      5-min Rain = 0
KPA1 090410Z 22005KT 03/02 A3028 RMK A01 T00260024  RH  099%=      5-min Rain = 0
KPA1 090411Z 22005KT 03/02 A3028 RMK A01 T00260024  RH  099%=      5-min Rain = 0
KPA1 090412Z 22005KT 03/02 A3028 RMK A01 T00260024  RH  099%=      5-min Rain = 0
KPA1 090413Z 22005KT 03/02 A3028 RMK A01 T00250023  RH  099%=      5-min Rain = 0
KPA1 090414Z 22005KT 03/02 A3028 RMK A01 T00250023  RH  099%=      5-min Rain = 0
KPA1 090415Z 22005KT 03/02 A3028 RMK A01 T00250022  RH  098%=      5-min Rain = 0
KPA1 090416Z 22005KT 02/02 A3028 RMK A01 T00240022  RH  098%=      5-min Rain = 0
KPA1 090417Z 22005KT 02/02 A3028 RMK A01 T00240021  RH  098%=      5-min Rain = 0
KPA1 090418Z 23004KT 02/02 A3028 RMK A01 T00230021  RH  098%=      5-min Rain = 0
KPA1 090419Z 23004KT 02/02 A3028 RMK A01 T00230021  RH  099%=      5-min Rain = 0
KPA1 090420Z 23005KT 02/02 A3028 RMK A01 T00230021  RH  099%=      5-min Rain = 0
KPA1 090421Z 23005KT 02/02 A3028 RMK A01 T00230021  RH  099%=      5-min Rain = 0
KPA1 090422Z 23005KT 02/02 A3028 RMK A01 T00220020  RH  099%=      5-min Rain = 0
KPA1 090423Z 23005KT 02/02 A3028 RMK A01 T00220019  RH  098%=      5-min Rain = 0
KPA1 090424Z 23005KT 02/02 A3028 RMK A01 T00210019  RH  099%=      5-min Rain = 0
KPA1 090425Z 23005KT 02/02 A3028 RMK A01 T00220020  RH  099%=      5-min Rain = 0
KPA1 090426Z 23005KT 02/02 A3028 RMK A01 T00220020  RH  099%=      5-min Rain = 0
KPA1 090427Z 23005KT 02/02 A3028 RMK A01 T00230021  RH  099%=      5-min Rain = 0
KPA1 090428Z 23005KT 02/02 A3028 RMK A01 T00230021  RH  099%=      5-min Rain = 0
KPA1 090429Z 23005KT 02/02 A3028 RMK A01 T00230022  RH  099%=      5-min Rain = 0
KPA1 090430Z 23005KT 02/02 A3028 RMK A01 T00230021  RH  099%=      5-min Rain = 0
KPA1 090431Z 23006KT 02/02 A3028 RMK A01 T00230022  RH  099%=      5-min Rain = 0
KPA1 090432Z 23005KT 02/02 A3028 RMK A01 T00230021  RH  099%=      5-min Rain = 0
KPA1 090433Z 24005KT 02/02 A3028 RMK A01 T00230021  RH  099%=      5-min Rain = 0
KPA1 090434Z 24005KT 02/02 A3028 RMK A01 T00230021  RH  099%=      5-min Rain = 0
KPA1 090435Z 24004KT 02/02 A3028 RMK A01 T00220020  RH  098%=      5-min Rain = 0
KPA1 090436Z 24004KT 02/02 A3028 RMK A01 T00210018  RH  098%=      5-min Rain = 0
KPA1 090437Z 24004KT 02/02 A3028 RMK A01 T00200017  RH  098%=      5-min Rain = 0
KPA1 090438Z 24004KT 02/02 A3028 RMK A01 T00190016  RH  098%=      5-min Rain = 0
KPA1 090439Z 24005KT 02/01 A3028 RMK A01 T00170014  RH  098%=      5-min Rain = 0
KPA1 090440Z 24005KT 02/01 A3028 RMK A01 T00150012  RH  098%=      5-min Rain = 0
KPA1 090441Z 24005KT 02/01 A3028 RMK A01 T00150012  RH  098%=      5-min Rain = 0
KPA1 090442Z 24005KT 02/01 A3028 RMK A01 T00150012  RH  098%=      5-min Rain = 0
KPA1 090443Z 24005KT 02/01 A3028 RMK A01 T00150013  RH  098%=      5-min Rain = 0
KPA1 090444Z 24006KT 02/01 A3028 RMK A01 T00150013  RH  098%=      5-min Rain = 0
KPA1 090445Z 24006KT 02/01 A3028 RMK A01 T00150013  RH  098%=      5-min Rain = 0
KPA1 090446Z 24006KT 02/01 A3028 RMK A01 T00150013  RH  098%=      5-min Rain = 0
KPA1 090447Z 24006KT 02/01 A3028 RMK A01 T00150013  RH  098%=      5-min Rain = 0
KPA1 090448Z 24006KT 02/01 A3028 RMK A01 T00150013  RH  098%=      5-min Rain = 0
KPA1 090449Z 24006KT 02/01 A3028 RMK A01 T00150013  RH  098%=      5-min Rain = 0
KPA1 090450Z 24006KT 02/01 A3028 RMK A01 T00150012  RH  098%=      5-min Rain = 0
KPA1 090451Z 24006KT 01/01 A3028 RMK A01 T00140012  RH  098%=      5-min Rain = 0
KPA1 090452Z 24006KT 01/01 A3028 RMK A01 T00140012  RH  099%=      5-min Rain = 0
KPA1 090453Z 24006KT 01/01 A3028 RMK A01 T00140012  RH  099%=      5-min Rain = 0
KPA1 090454Z 24006KT 01/01 A3028 RMK A01 T00140012  RH  099%=      5-min Rain = 0
KPA1 090455Z 24006KT 01/01 A3028 RMK A01 T00140012  RH  099%=      5-min Rain = 0
KPA1 090456Z 24006KT 01/01 A3028 RMK A01 T00140013  RH  099%=      5-min Rain = 0
KPA1 090457Z 24006KT 01/01 A3028 RMK A01 T00140013  RH  099%=      5-min Rain = 0
KPA1 090458Z 24006KT 02/01 A3028 RMK A01 T00150013  RH  099%=      5-min Rain = 0
KPA1 090459Z 24007KT 02/01 A3028 RMK A01 T00150013  RH  099%=      5-min Rain = 0
KPA1 090500Z 24006KT 01/01 A3028 RMK A01 T00140013  RH  099%=      5-min Rain = 0
KPA1 090501Z 23006KT 01/01 A3027 RMK A01 T00140012  RH  099%=      5-min Rain = 0
KPA1 090502Z 23006KT 01/01 A3027 RMK A01 T00140012  RH  099%=      5-min Rain = 0
KPA1 090503Z 23006KT 01/01 A3027 RMK A01 T00130012  RH  099%=      5-min Rain = 0
KPA1 090504Z 23006KT 01/01 A3027 RMK A01 T00130012  RH  099%=      5-min Rain = 0
KPA1 090505Z 23007KT 01/01 A3027 RMK A01 T00130012  RH  099%=      5-min Rain = 0
KPA1 090506Z 23007KT 01/01 A3027 RMK A01 T00130011  RH  099%=      5-min Rain = 0
KPA1 090507Z 23007KT 01/01 A3027 RMK A01 T00130011  RH  099%=      5-min Rain = 0
KPA1 090508Z 23006KT 01/01 A3027 RMK A01 T00130012  RH  099%=      5-min Rain = 0
KPA1 090509Z 23006KT 01/01 A3027 RMK A01 T00130011  RH  099%=      5-min Rain = 0
KPA1 090510Z 23006KT 01/01 A3027 RMK A01 T00130011  RH  099%=      5-min Rain = 0
KPA1 090511Z 23006KT 01/01 A3027 RMK A01 T00130012  RH  099%=      5-min Rain = 0
KPA1 090512Z 23006KT 01/01 A3027 RMK A01 T00130012  RH  099%=      5-min Rain = 0
KPA1 090513Z 23006KT 01/01 A3027 RMK A01 T00130012  RH  099%=      5-min Rain = 0
KPA1 090514Z 23006KT 01/01 A3027 RMK A01 T00130012  RH  099%=      5-min Rain = 0
KPA1 090515Z 23005KT 01/01 A3027 RMK A01 T00130012  RH  099%=      5-min Rain = 0
KPA1 090516Z 24005KT 01/01 A3027 RMK A01 T00130011  RH  099%=      5-min Rain = 0
KPA1 090517Z 24005KT 01/01 A3027 RMK A01 T00130012  RH  099%=      5-min Rain = 0
KPA1 090518Z 24005KT 01/01 A3027 RMK A01 T00130012  RH  099%=      5-min Rain = 0
KPA1 090519Z 24005KT 01/01 A3027 RMK A01 T00120011  RH  099%=      5-min Rain = 0
KPA1 090520Z 24005KT 01/01 A3027 RMK A01 T00120011  RH  099%=      5-min Rain = 0
KPA1 090521Z 24005KT 01/01 A3027 RMK A01 T00120010  RH  099%=      5-min Rain = 0
KPA1 090522Z 24005KT 01/01 A3027 RMK A01 T00110010  RH  099%=      5-min Rain = 0
KPA1 090523Z 24005KT 01/01 A3027 RMK A01 T00110010  RH  099%=      5-min Rain = 0
KPA1 090524Z 23005KT 01/01 A3027 RMK A01 T00110010  RH  099%=      5-min Rain = 0
KPA1 090525Z 23005KT 01/01 A3027 RMK A01 T00110010  RH  099%=      5-min Rain = 0
KPA1 090526Z 24005KT 01/01 A3027 RMK A01 T00110010  RH  099%=      5-min Rain = 0
KPA1 090527Z 24005KT 01/01 A3027 RMK A01 T00110010  RH  099%=      5-min Rain = 0
KPA1 090528Z 24005KT 01/01 A3027 RMK A01 T00110010  RH  099%=      5-min Rain = 0
KPA1 090529Z 25005KT 01/01 A3027 RMK A01 T00100009  RH  099%=      5-min Rain = 0
KPA1 090530Z 25005KT 01/01 A3027 RMK A01 T00100009  RH  099%=      5-min Rain = 0
KPA1 090531Z 25006KT 01/01 A3027 RMK A01 T00100009  RH  099%=      5-min Rain = 0
KPA1 090532Z 24006KT 01/01 A3027 RMK A01 T00110011  RH  099%=      5-min Rain = 0
KPA1 090533Z 24006KT 01/01 A3027 RMK A01 T00120012  RH  100%=      5-min Rain = 0
KPA1 090534Z 24006KT 01/01 A3027 RMK A01 T00130013  RH  100%=      5-min Rain = 0
KPA1 090535Z 24006KT 01/01 A3027 RMK A01 T00140014  RH  100%=      5-min Rain = 0
KPA1 090536Z 24007KT 02/02 A3027 RMK A01 T00150015  RH  100%=      5-min Rain = 0
KPA1 090537Z 25006KT 02/02 A3027 RMK A01 T00170017  RH  100%=      5-min Rain = 0
KPA1 090538Z 25006KT 02/02 A3027 RMK A01 T00180018  RH  100%=      5-min Rain = 0
KPA1 090539Z 25006KT 02/02 A3027 RMK A01 T00180018  RH  100%=      5-min Rain = 0
KPA1 090540Z 25005KT 02/02 A3027 RMK A01 T00180018  RH  100%=      5-min Rain = 0
KPA1 090541Z 25005KT 02/02 A3027 RMK A01 T00180018  RH  100%=      5-min Rain = 0
KPA1 090542Z 25005KT 02/02 A3027 RMK A01 T00170017  RH  100%=      5-min Rain = 0
KPA1 090543Z 25005KT 02/02 A3026 RMK A01 T00170016  RH  100%=      5-min Rain = 0
KPA1 090544Z 24005KT 02/02 A3026 RMK A01 T00160015  RH  099%=      5-min Rain = 0
KPA1 090545Z 24005KT 02/02 A3026 RMK A01 T00160015  RH  099%=      5-min Rain = 0
KPA1 090546Z 24005KT 02/01 A3026 RMK A01 T00150014  RH  099%=      5-min Rain = 0
KPA1 090547Z 24005KT 02/01 A3026 RMK A01 T00150013  RH  099%=      5-min Rain = 0
KPA1 090548Z 24005KT 01/01 A3026 RMK A01 T00140013  RH  099%=      5-min Rain = 0
KPA1 090549Z 24005KT 01/01 A3026 RMK A01 T00140013  RH  099%=      5-min Rain = 0
KPA1 090550Z 24005KT 01/01 A3026 RMK A01 T00140013  RH  099%=      5-min Rain = 0
KPA1 090551Z 24005KT 01/01 A3026 RMK A01 T00140013  RH  099%=      5-min Rain = 0
KPA1 090552Z 24005KT 01/01 A3026 RMK A01 T00140013  RH  099%=      5-min Rain = 0
KPA1 090553Z 24005KT 01/01 A3027 RMK A01 T00140013  RH  099%=      5-min Rain = 0
KPA1 090554Z 24005KT 01/01 A3027 RMK A01 T00130012  RH  099%=      5-min Rain = 0
KPA1 090555Z 24005KT 01/01 A3027 RMK A01 T00130012  RH  099%=      5-min Rain = 0
KPA1 090556Z 24005KT 01/01 A3027 RMK A01 T00140013  RH  100%=      5-min Rain = 0
KPA1 090557Z 24005KT 01/01 A3027 RMK A01 T00140013  RH  100%=      5-min Rain = 0
KPA1 090558Z 24006KT 01/01 A3027 RMK A01 T00140013  RH  100%=      5-min Rain = 0
KPA1 090559Z 24005KT 01/01 A3027 RMK A01 T00140013  RH  100%=      5-min Rain = 0

Page generated in 0.07 seconds.